Time,TemperatureF,DewpointF,PressureIn,WindDirection,WindDirectionDegrees,WindSpeedMPH,WindSpeedGustMPH,Humidity,HourlyPrecipIn,Conditions,Clouds,dailyrainin,SoftwareType,DateUTC
2013-07-10 00:02:00,72.9,66.7,28.61,NW,315,1.4,2.3,81,0.00,RA,,0.00,WeatherDisplay:10.37,2013-07-10 05:02:00,
2013-07-10 00:03:00,72.9,66.7,28.61,West,270,1.4,2.3,81,0.00,RA,,0.00,WeatherDisplay:10.37,2013-07-10 05:03:00,
2013-07-10 00:04:00,72.7,66.5,28.61,WSW,248,0.0,2.3,81,0.00,RA,,0.00,WeatherDisplay:10.37,2013-07-10 05:04:00,
2013-07-10 00:08:00,72.7,66.5,28.61,West,270,1.2,1.2,81,0.00,RA,,0.00,WeatherDisplay:10.37,2013-07-10 05:08:00,
2013-07-10 00:09:00,72.7,66.9,28.61,WNW,292,0.9,3.5,82,0.00,RA,,0.00,WeatherDisplay:10.37,2013-07-10 05:09:00,
2013-07-10 00:13:00,72.5,67.0,28.61,WSW,248,2.9,3.5,83,0.00,CLR,,0.00,WeatherDisplay:10.37,2013-07-10 05:13:00,
2013-07-10 00:14:00,72.5,67.0,28.61,WSW,248,2.9,2.9,83,0.00,CLR,,0.00,WeatherDisplay:10.37,2013-07-10 05:14:00,
2013-07-10 00:18:00,72.5,67.0,28.61,SW,225,0.0,2.3,83,0.00,CLR,,0.00,WeatherDisplay:10.37,2013-07-10 05:18:00,
2013-07-10 00:19:00,72.5,67.0,28.61,WSW,248,0.9,3.1,83,0.00,CLR,,0.00,WeatherDisplay:10.37,2013-07-10 05:19:00,
2013-07-10 00:20:00,72.5,67.0,28.61,WNW,292,0.9,3.5,83,0.00,CLR,,0.00,WeatherDisplay:10.37,2013-07-10 05:20:00,
2013-07-10 00:23:00,72.5,67.0,28.61,West,270,0.9,1.2,83,0.00,CLR,,0.00,WeatherDisplay:10.37,2013-07-10 05:23:00,
2013-07-10 00:24:00,72.5,67.4,28.61,West,270,2.2,4.0,84,0.00,CLR,,0.00,WeatherDisplay:10.37,2013-07-10 05:24:00,
2013-07-10 00:25:00,72.5,67.4,28.61,SW,225,2.9,4.6,84,0.00,CLR,,0.00,WeatherDisplay:10.37,2013-07-10 05:25:00,
2013-07-10 00:29:00,72.1,66.7,28.61,WNW,292,0.0,1.2,83,0.00,CLR,,0.00,WeatherDisplay:10.37,2013-07-10 05:29:00,
2013-07-10 00:30:00,72.1,66.7,28.61,WSW,248,0.0,0.0,83,0.00,CLR,,0.00,WeatherDisplay:10.37,2013-07-10 05:30:00,
2013-07-10 00:34:00,72.1,67.0,28.61,WSW,248,0.0,1.2,84,0.00,CLR,,0.00,WeatherDisplay:10.37,2013-07-10 05:34:00,
2013-07-10 00:35:00,72.1,67.0,28.61,WSW,256,0.0,5.0,84,0.00,CLR,,0.00,WeatherDisplay:10.37,2013-07-10 05:35:00,
2013-07-10 00:36:00,72.1,67.0,28.61,WSW,248,2.0,2.3,84,0.00,CLR,,0.00,WeatherDisplay:10.37,2013-07-10 05:36:00,
2013-07-10 00:39:00,72.0,66.9,28.61,West,270,2.0,2.3,84,0.00,CLR,,0.00,WeatherDisplay:10.37,2013-07-10 05:39:00,
2013-07-10 00:40:00,72.0,66.9,28.61,West,264,0.0,3.0,84,0.00,CLR,,0.00,WeatherDisplay:10.37,2013-07-10 05:40:00,
2013-07-10 00:41:00,72.0,66.9,28.61,SSW,202,1.2,3.6,84,0.00,CLR,,0.00,WeatherDisplay:10.37,2013-07-10 05:41:00,
2013-07-10 00:44:00,72.0,66.9,28.61,West,270,0.9,2.3,84,0.00,CLR,,0.00,WeatherDisplay:10.37,2013-07-10 05:44:00,
2013-07-10 00:45:00,72.0,67.2,28.61,North,0,0.0,2.3,85,0.00,CLR,,0.00,WeatherDisplay:10.37,2013-07-10 05:45:00,
2013-07-10 00:46:00,72.0,67.2,28.61,WSW,248,1.2,3.5,85,0.00,CLR,,0.00,WeatherDisplay:10.37,2013-07-10 05:46:00,
2013-07-10 00:49:00,72.0,67.2,28.61,NNW,338,0.9,1.2,85,0.00,CLR,,0.00,WeatherDisplay:10.37,2013-07-10 05:49:00,
2013-07-10 00:50:00,71.8,67.0,28.61,NW,315,0.0,2.2,85,0.00,CLR,,0.00,WeatherDisplay:10.37,2013-07-10 05:50:00,
2013-07-10 00:51:00,71.8,67.0,28.61,NW,315,1.6,3.5,85,0.00,CLR,,0.00,WeatherDisplay:10.37,2013-07-10 05:51:00,
2013-07-10 00:54:00,71.8,67.0,28.61,West,270,0.9,1.4,85,0.00,CLR,,0.00,WeatherDisplay:10.37,2013-07-10 05:54:00,
2013-07-10 00:55:00,71.8,67.4,28.61,NW,315,1.6,4.6,86,0.00,CLR,,0.00,WeatherDisplay:10.37,2013-07-10 05:55:00,
2013-07-10 00:56:00,71.8,67.4,28.61,WSW,248,2.2,4.6,86,0.00,CLR,,0.00,WeatherDisplay:10.37,2013-07-10 05:56:00,
2013-07-10 00:59:00,72.0,67.5,28.61,NNW,338,1.6,3.5,86,0.00,CLR,,0.00,WeatherDisplay:10.37,2013-07-10 05:59:00,
2013-07-10 01:01:00,72.0,67.5,28.61,NW,315,0.9,1.2,86,0.00,CLR,,0.00,WeatherDisplay:10.37,2013-07-10 06:01:00,
2013-07-10 01:05:00,72.0,67.5,28.61,WNW,292,1.6,2.3,86,0.00,CLR,,0.00,WeatherDisplay:10.37,2013-07-10 06:05:00,
2013-07-10 01:06:00,72.0,67.5,28.61,NW,315,0.0,2.3,86,0.00,CLR,,0.00,WeatherDisplay:10.37,2013-07-10 06:06:00,
2013-07-10 01:07:00,72.0,67.5,28.61,NW,315,0.0,2.3,86,0.00,CLR,,0.00,WeatherDisplay:10.37,2013-07-10 06:07:00,
2013-07-10 01:10:00,72.0,67.5,28.64,WNW,292,2.4,2.4,86,0.00,CLR,,0.00,WeatherDisplay:10.37,2013-07-10 06:10:00,
2013-07-10 01:11:00,72.1,67.7,28.64,WSW,248,2.9,5.8,86,0.00,CLR,,0.00,WeatherDisplay:10.37,2013-07-10 06:11:00,
2013-07-10 01:12:00,72.1,67.7,28.64,SE,135,1.2,5.8,86,0.00,CLR,,0.00,WeatherDisplay:10.37,2013-07-10 06:12:00,
2013-07-10 01:15:00,72.3,67.9,28.64,WSW,248,2.4,3.5,86,0.00,CLR,,0.00,WeatherDisplay:10.37,2013-07-10 06:15:00,
2013-07-10 01:16:00,72.3,67.9,28.64,West,270,2.4,3.5,86,0.00,CLR,,0.00,WeatherDisplay:10.37,2013-07-10 06:16:00,
2013-07-10 01:17:00,72.3,67.9,28.64,North,0,2.4,3.5,86,0.00,CLR,,0.00,WeatherDisplay:10.37,2013-07-10 06:17:00,
2013-07-10 01:20:00,72.5,68.1,28.64,NW,315,2.0,3.5,86,0.00,CLR,,0.00,WeatherDisplay:10.37,2013-07-10 06:20:00,
2013-07-10 01:21:00,72.5,68.1,28.64,NW,315,2.0,3.5,86,0.00,CLR,,0.00,WeatherDisplay:10.37,2013-07-10 06:21:00,
2013-07-10 01:22:00,72.5,68.1,28.64,WSW,248,3.6,5.8,86,0.00,CLR,,0.00,WeatherDisplay:10.37,2013-07-10 06:22:00,
2013-07-10 01:25:00,72.7,68.2,28.61,West,270,2.4,6.9,86,0.00,CLR,,0.00,WeatherDisplay:10.37,2013-07-10 06:25:00,
2013-07-10 01:26:00,72.7,67.9,28.61,NNE,22,2.4,2.4,85,0.00,CLR,,0.00,WeatherDisplay:10.37,2013-07-10 06:26:00,
2013-07-10 01:27:00,72.7,67.9,28.61,North,0,2.0,3.5,85,0.00,CLR,,0.00,WeatherDisplay:10.37,2013-07-10 06:27:00,
2013-07-10 01:28:00,72.7,67.9,28.61,NW,315,2.0,3.5,85,0.00,CLR,,0.00,WeatherDisplay:10.37,2013-07-10 06:28:00,
2013-07-10 01:30:00,72.9,68.1,28.61,WNW,292,4.5,8.1,85,0.00,CLR,,0.00,WeatherDisplay:10.37,2013-07-10 06:30:00,
2013-07-10 01:31:00,72.9,68.1,28.61,West,270,3.3,4.6,85,0.00,CLR,,0.00,WeatherDisplay:10.37,2013-07-10 06:31:00,
2013-07-10 01:32:00,72.9,68.1,28.61,NW,315,3.3,4.6,85,0.00,CLR,,0.00,WeatherDisplay:10.37,2013-07-10 06:32:00,
2013-07-10 01:33:00,72.9,68.1,28.61,NNW,338,2.6,3.5,85,0.00,CLR,,0.00,WeatherDisplay:10.37,2013-07-10 06:33:00,
2013-07-10 01:36:00,73.0,67.9,28.61,North,0,4.3,6.9,84,0.00,CLR,,0.00,WeatherDisplay:10.37,2013-07-10 06:36:00,
2013-07-10 01:38:00,73.0,67.9,28.61,WNW,292,4.3,6.9,84,0.00,CLR,,0.00,WeatherDisplay:10.37,2013-07-10 06:38:00,
2013-07-10 01:41:00,73.0,67.9,28.61,North,0,2.4,5.8,84,0.00,CLR,,0.00,WeatherDisplay:10.37,2013-07-10 06:41:00,
2013-07-10 01:43:00,73.0,67.9,28.61,West,270,2.9,6.9,84,0.00,CLR,,0.00,WeatherDisplay:10.37,2013-07-10 06:43:00,
2013-07-10 01:46:00,73.2,67.7,28.61,NNW,338,4.3,9.2,83,0.00,CLR,,0.00,WeatherDisplay:10.37,2013-07-10 06:46:00,
2013-07-10 01:47:00,73.2,67.7,28.61,WNW,292,4.3,9.2,83,0.00,CLR,,0.00,WeatherDisplay:10.37,2013-07-10 06:47:00,
2013-07-10 01:48:00,73.2,67.7,28.61,WNW,292,3.8,3.8,83,0.00,CLR,,0.00,WeatherDisplay:10.37,2013-07-10 06:48:00,
2013-07-10 01:51:00,73.0,67.6,28.61,NW,315,2.2,3.5,83,0.00,CLR,,0.00,WeatherDisplay:10.37,2013-07-10 06:51:00,
2013-07-10 01:52:00,73.0,67.6,28.61,WNW,292,2.9,3.5,83,0.00,CLR,,0.00,WeatherDisplay:10.37,2013-07-10 06:52:00,
2013-07-10 01:53:00,73.0,67.6,28.61,NNE,22,3.3,4.6,83,0.00,CLR,,0.00,WeatherDisplay:10.37,2013-07-10 06:53:00,
2013-07-10 01:57:00,73.0,67.6,28.61,NNW,338,2.2,3.5,83,0.00,CLR,,0.00,WeatherDisplay:10.37,2013-07-10 06:57:00,
2013-07-10 01:58:00,73.0,67.2,28.61,NW,315,4.0,5.8,82,0.00,CLR,,0.00,WeatherDisplay:10.37,2013-07-10 06:58:00,
2013-07-10 02:02:00,73.0,67.2,28.61,NW,315,4.7,6.9,82,0.00,CLR,,0.00,WeatherDisplay:10.37,2013-07-10 07:02:00,
2013-07-10 02:03:00,73.0,67.2,28.61,NW,315,4.7,5.8,82,0.00,CLR,,0.00,WeatherDisplay:10.37,2013-07-10 07:03:00,
2013-07-10 02:07:00,73.0,67.2,28.61,NW,315,3.1,5.8,82,0.00,CLR,,0.00,WeatherDisplay:10.37,2013-07-10 07:07:00,
2013-07-10 02:08:00,73.0,67.2,28.61,West,270,4.7,5.9,82,0.00,CLR,,0.00,WeatherDisplay:10.37,2013-07-10 07:08:00,
2013-07-10 02:09:00,73.0,67.2,28.61,WNW,292,4.0,5.8,82,0.00,CLR,,0.00,WeatherDisplay:10.37,2013-07-10 07:09:00,
2013-07-10 02:12:00,73.0,67.2,28.61,North,0,4.5,5.8,82,0.00,CLR,,0.00,WeatherDisplay:10.37,2013-07-10 07:12:00,
2013-07-10 02:13:00,73.0,66.9,28.61,WNW,292,2.9,3.8,81,0.00,CLR,,0.00,WeatherDisplay:10.37,2013-07-10 07:13:00,
2013-07-10 02:14:00,73.0,66.9,28.61,NW,315,2.9,6.9,81,0.00,CLR,,0.00,WeatherDisplay:10.37,2013-07-10 07:14:00,
2013-07-10 02:18:00,73.0,66.9,28.61,WNW,292,4.9,8.1,81,0.00,CLR,,0.00,WeatherDisplay:10.37,2013-07-10 07:18:00,
2013-07-10 02:19:00,73.0,66.9,28.61,NNW,338,6.4,8.1,81,0.00,CLR,,0.00,WeatherDisplay:10.37,2013-07-10 07:19:00,
2013-07-10 02:23:00,73.0,66.5,28.61,NW,315,7.4,9.2,80,0.00,CLR,,0.00,WeatherDisplay:10.37,2013-07-10 07:23:00,
2013-07-10 02:24:00,73.0,66.1,28.61,NW,315,7.4,9.2,79,0.00,CLR,,0.00,WeatherDisplay:10.37,2013-07-10 07:24:00,
2013-07-10 02:25:00,73.0,66.1,28.61,NW,307,5.0,9.0,79,0.00,CLR,,0.00,WeatherDisplay:10.37,2013-07-10 07:25:00,
2013-07-10 02:28:00,73.0,66.1,28.61,NW,315,6.0,8.1,79,0.00,CLR,,0.00,WeatherDisplay:10.37,2013-07-10 07:28:00,
2013-07-10 02:29:00,73.0,66.1,28.61,WNW,292,3.3,5.8,79,0.00,CLR,,0.00,WeatherDisplay:10.37,2013-07-10 07:29:00,
2013-07-10 02:30:00,73.0,66.1,28.61,North,0,3.3,5.8,79,0.00,CLR,,0.00,WeatherDisplay:10.37,2013-07-10 07:30:00,
2013-07-10 02:33:00,73.0,65.8,28.61,WNW,292,4.9,8.1,78,0.00,CLR,,0.00,WeatherDisplay:10.37,2013-07-10 07:33:00,
2013-07-10 02:34:00,72.9,65.6,28.61,NNW,338,4.3,5.8,78,0.00,CLR,,0.00,WeatherDisplay:10.37,2013-07-10 07:34:00,
2013-07-10 02:35:00,72.9,65.6,28.61,WSW,248,4.7,5.8,78,0.00,CLR,,0.00,WeatherDisplay:10.37,2013-07-10 07:35:00,
2013-07-10 02:38:00,72.9,65.6,28.61,NNW,338,4.3,4.6,78,0.00,CLR,,0.00,WeatherDisplay:10.37,2013-07-10 07:38:00,
2013-07-10 02:40:00,72.9,65.6,28.61,NW,309,5.0,7.0,78,0.00,CLR,,0.00,WeatherDisplay:10.37,2013-07-10 07:40:00,
2013-07-10 02:44:00,72.7,65.4,28.61,North,0,3.6,8.1,78,0.00,CLR,,0.00,WeatherDisplay:10.37,2013-07-10 07:44:00,
2013-07-10 02:45:00,72.7,65.4,28.61,NW,315,3.6,5.8,78,0.00,CLR,,0.00,WeatherDisplay:10.37,2013-07-10 07:45:00,
2013-07-10 02:46:00,72.7,65.4,28.61,North,0,4.3,5.8,78,0.00,CLR,,0.00,WeatherDisplay:10.37,2013-07-10 07:46:00,
2013-07-10 02:49:00,72.5,65.2,28.61,NW,315,4.5,7.1,78,0.00,CLR,,0.00,WeatherDisplay:10.37,2013-07-10 07:49:00,
2013-07-10 02:50:00,72.5,65.2,28.61,NW,315,4.7,6.9,78,0.00,CLR,,0.00,WeatherDisplay:10.37,2013-07-10 07:50:00,
2013-07-10 02:51:00,72.5,65.2,28.61,North,0,4.7,6.9,78,0.00,CLR,,0.00,WeatherDisplay:10.37,2013-07-10 07:51:00,
2013-07-10 02:54:00,72.5,65.2,28.61,North,0,2.9,4.6,78,0.00,CLR,,0.00,WeatherDisplay:10.37,2013-07-10 07:54:00,
2013-07-10 02:56:00,72.5,65.2,28.61,North,0,4.5,6.9,78,0.00,CLR,,0.00,WeatherDisplay:10.37,2013-07-10 07:56:00,
2013-07-10 02:59:00,72.3,65.1,28.61,NNW,338,4.0,5.8,78,0.00,CLR,,0.00,WeatherDisplay:10.37,2013-07-10 07:59:00,
2013-07-10 03:01:00,72.3,65.1,28.61,North,0,4.0,4.6,78,0.00,CLR,,0.00,WeatherDisplay:10.37,2013-07-10 08:01:00,
2013-07-10 03:05:00,72.3,65.1,28.61,NW,313,5.0,6.0,78,0.00,CLR,,0.00,WeatherDisplay:10.37,2013-07-10 08:05:00,
2013-07-10 03:06:00,72.1,64.9,28.61,NNW,338,4.3,5.8,78,0.00,CLR,,0.00,WeatherDisplay:10.37,2013-07-10 08:06:00,
2013-07-10 03:10:00,72.3,65.1,28.61,WSW,248,3.1,8.1,78,0.00,CLR,,0.00,WeatherDisplay:10.37,2013-07-10 08:10:00,
2013-07-10 03:11:00,72.1,64.9,28.61,NNW,338,4.0,7.6,78,0.00,CLR,,0.00,WeatherDisplay:10.37,2013-07-10 08:11:00,
2013-07-10 03:12:00,72.1,64.9,28.61,NNW,338,3.1,8.1,78,0.00,CLR,,0.00,WeatherDisplay:10.37,2013-07-10 08:12:00,
2013-07-10 03:15:00,72.1,64.9,28.61,NW,315,3.1,5.9,78,0.00,CLR,,0.00,WeatherDisplay:10.37,2013-07-10 08:15:00,
2013-07-10 03:16:00,72.1,64.5,28.61,WSW,248,6.0,8.1,77,0.00,CLR,,0.00,WeatherDisplay:10.37,2013-07-10 08:16:00,
2013-07-10 03:17:00,72.1,64.5,28.61,NNW,338,6.0,8.1,77,0.00,CLR,,0.00,WeatherDisplay:10.37,2013-07-10 08:17:00,
2013-07-10 03:20:00,72.1,64.5,28.61,NNW,338,4.9,6.9,77,0.00,CLR,,0.00,WeatherDisplay:10.37,2013-07-10 08:20:00,
2013-07-10 03:21:00,72.1,64.5,28.61,NW,315,4.5,5.8,77,0.00,CLR,,0.00,WeatherDisplay:10.37,2013-07-10 08:21:00,
2013-07-10 03:22:00,72.1,64.5,28.61,NW,315,5.6,7.4,77,0.00,CLR,,0.00,WeatherDisplay:10.37,2013-07-10 08:22:00,
2013-07-10 03:26:00,72.0,64.4,28.61,North,0,4.7,5.9,77,0.00,CLR,,0.00,WeatherDisplay:10.37,2013-07-10 08:26:00,
2013-07-10 03:27:00,72.0,64.4,28.61,West,270,3.3,5.8,77,0.00,CLR,,0.00,WeatherDisplay:10.37,2013-07-10 08:27:00,
2013-07-10 03:28:00,72.0,64.4,28.61,West,270,3.6,5.8,77,0.00,CLR,,0.00,WeatherDisplay:10.37,2013-07-10 08:28:00,
2013-07-10 03:31:00,71.8,64.2,28.61,NW,315,3.8,3.8,77,0.00,CLR,,0.00,WeatherDisplay:10.37,2013-07-10 08:31:00,
2013-07-10 03:32:00,71.8,64.2,28.61,NNW,338,4.3,4.6,77,0.00,CLR,,0.00,WeatherDisplay:10.37,2013-07-10 08:32:00,
2013-07-10 03:33:00,71.8,64.2,28.61,NW,315,3.3,4.6,77,0.00,CLR,,0.00,WeatherDisplay:10.37,2013-07-10 08:33:00,
2013-07-10 03:36:00,71.8,64.2,28.61,WNW,292,3.6,9.2,77,0.00,CLR,,0.00,WeatherDisplay:10.37,2013-07-10 08:36:00,
2013-07-10 03:37:00,71.8,64.2,28.61,North,0,3.6,5.8,77,0.00,CLR,,0.00,WeatherDisplay:10.37,2013-07-10 08:37:00,
2013-07-10 03:38:00,71.8,64.2,28.61,North,0,4.5,4.6,77,0.00,CLR,,0.00,WeatherDisplay:10.37,2013-07-10 08:38:00,
2013-07-10 03:41:00,71.6,64.0,28.64,WNW,292,2.9,4.6,77,0.00,CLR,,0.00,WeatherDisplay:10.37,2013-07-10 08:41:00,
2013-07-10 03:42:00,71.6,64.0,28.64,NW,315,4.3,4.7,77,0.00,CLR,,0.00,WeatherDisplay:10.37,2013-07-10 08:42:00,
2013-07-10 03:43:00,71.6,64.0,28.64,NW,315,4.3,4.6,77,0.00,CLR,,0.00,WeatherDisplay:10.37,2013-07-10 08:43:00,
2013-07-10 03:46:00,71.6,64.0,28.64,WNW,292,4.9,5.8,77,0.00,CLR,,0.00,WeatherDisplay:10.37,2013-07-10 08:46:00,
2013-07-10 03:47:00,71.6,64.0,28.64,WNW,292,5.9,8.1,77,0.00,CLR,,0.00,WeatherDisplay:10.37,2013-07-10 08:47:00,
2013-07-10 03:48:00,71.6,64.0,28.64,NW,315,5.9,8.1,77,0.00,CLR,,0.00,WeatherDisplay:10.37,2013-07-10 08:48:00,
2013-07-10 03:52:00,71.6,64.0,28.64,NW,315,4.7,5.8,77,0.00,CLR,,0.00,WeatherDisplay:10.37,2013-07-10 08:52:00,
2013-07-10 03:53:00,71.4,64.2,28.64,NW,315,3.8,4.6,78,0.00,CLR,,0.00,WeatherDisplay:10.37,2013-07-10 08:53:00,
2013-07-10 03:57:00,71.4,64.2,28.64,NW,315,6.7,8.1,78,0.00,CLR,,0.00,WeatherDisplay:10.37,2013-07-10 08:57:00,
2013-07-10 03:58:00,71.4,64.2,28.64,WSW,248,6.7,8.1,78,0.00,CLR,,0.00,WeatherDisplay:10.37,2013-07-10 08:58:00,
2013-07-10 03:59:00,71.6,64.0,28.64,NW,315,3.6,8.1,77,0.00,CLR,,0.00,WeatherDisplay:10.37,2013-07-10 08:59:00,
2013-07-10 04:02:00,71.6,64.0,28.64,NW,315,4.9,5.8,77,0.00,CLR,,0.00,WeatherDisplay:10.37,2013-07-10 09:02:00,
2013-07-10 04:03:00,71.4,64.2,28.64,NNW,338,4.0,7.4,78,0.00,CLR,,0.00,WeatherDisplay:10.37,2013-07-10 09:03:00,
2013-07-10 04:04:00,71.4,64.2,28.64,NW,315,3.6,6.9,78,0.00,CLR,,0.00,WeatherDisplay:10.37,2013-07-10 09:04:00,
2013-07-10 04:07:00,71.4,64.2,28.64,North,0,5.4,12.3,78,0.00,CLR,,0.00,WeatherDisplay:10.37,2013-07-10 09:07:00,
2013-07-10 04:08:00,71.4,64.2,28.64,NNW,338,6.2,12.7,78,0.00,CLR,,0.00,WeatherDisplay:10.37,2013-07-10 09:08:00,
2013-07-10 04:09:00,71.4,64.2,28.64,NW,315,3.8,5.8,78,0.00,CLR,,0.00,WeatherDisplay:10.37,2013-07-10 09:09:00,
2013-07-10 04:12:00,71.2,64.0,28.64,NW,315,3.3,5.8,78,0.00,CLR,,0.00,WeatherDisplay:10.37,2013-07-10 09:12:00,
2013-07-10 04:13:00,71.2,64.0,28.64,NNW,338,3.3,5.8,78,0.00,CLR,,0.00,WeatherDisplay:10.37,2013-07-10 09:13:00,
2013-07-10 04:14:00,71.2,64.0,28.64,NW,315,4.7,8.7,78,0.00,CLR,,0.00,WeatherDisplay:10.37,2013-07-10 09:14:00,
2013-07-10 04:17:00,71.2,64.0,28.64,NW,315,5.9,9.2,78,0.00,CLR,,0.00,WeatherDisplay:10.37,2013-07-10 09:17:00,
2013-07-10 04:18:00,71.2,64.0,28.64,WNW,292,6.9,9.2,78,0.00,CLR,,0.00,WeatherDisplay:10.37,2013-07-10 09:18:00,
2013-07-10 04:20:00,71.2,64.0,28.64,WNW,292,4.5,6.9,78,0.00,CLR,,0.00,WeatherDisplay:10.37,2013-07-10 09:20:00,
2013-07-10 04:23:00,71.1,63.9,28.64,NW,315,6.2,6.2,78,0.00,CLR,,0.00,WeatherDisplay:10.37,2013-07-10 09:23:00,
2013-07-10 04:24:00,71.1,64.2,28.64,WNW,292,3.6,5.8,79,0.00,CLR,,0.00,WeatherDisplay:10.37,2013-07-10 09:24:00,
2013-07-10 04:25:00,71.1,64.2,28.64,NNW,338,6.9,9.2,79,0.00,CLR,,0.00,WeatherDisplay:10.37,2013-07-10 09:25:00,
2013-07-10 04:28:00,71.1,64.2,28.64,North,0,4.0,6.2,79,0.00,CLR,,0.00,WeatherDisplay:10.37,2013-07-10 09:28:00,
2013-07-10 04:29:00,71.1,64.2,28.64,NW,315,5.6,8.1,79,0.00,CLR,,0.00,WeatherDisplay:10.37,2013-07-10 09:29:00,
2013-07-10 04:30:00,70.9,64.0,28.64,NW,315,6.0,6.9,79,0.00,CLR,,0.00,WeatherDisplay:10.37,2013-07-10 09:30:00,
2013-07-10 04:34:00,70.9,64.0,28.64,NW,315,3.6,5.8,79,0.00,CLR,,0.00,WeatherDisplay:10.37,2013-07-10 09:34:00,
2013-07-10 04:36:00,70.9,64.0,28.64,NW,315,5.9,9.4,79,0.00,CLR,,0.00,WeatherDisplay:10.37,2013-07-10 09:36:00,
2013-07-10 04:39:00,70.7,63.9,28.64,NW,315,6.0,9.2,79,0.00,CLR,,0.00,WeatherDisplay:10.37,2013-07-10 09:39:00,
2013-07-10 04:41:00,70.7,63.9,28.67,WNW,292,6.7,8.1,79,0.00,CLR,,0.00,WeatherDisplay:10.37,2013-07-10 09:41:00,
2013-07-10 04:44:00,70.7,63.9,28.67,West,270,3.8,5.8,79,0.00,CLR,,0.00,WeatherDisplay:10.37,2013-07-10 09:44:00,
2013-07-10 04:46:00,70.7,64.2,28.67,NW,315,5.4,8.1,80,0.00,CLR,,0.00,WeatherDisplay:10.37,2013-07-10 09:46:00,
2013-07-10 04:49:00,70.5,64.0,28.67,NW,315,4.3,6.9,80,0.00,CLR,,0.00,WeatherDisplay:10.37,2013-07-10 09:49:00,
2013-07-10 04:50:00,70.5,64.0,28.67,NW,315,4.9,4.9,80,0.00,CLR,,0.00,WeatherDisplay:10.37,2013-07-10 09:50:00,
2013-07-10 04:51:00,70.5,64.0,28.67,NNW,338,4.9,6.9,80,0.00,CLR,,0.00,WeatherDisplay:10.37,2013-07-10 09:51:00,
2013-07-10 04:52:00,70.5,64.0,28.67,NW,315,6.4,8.1,80,0.00,CLR,,0.00,WeatherDisplay:10.37,2013-07-10 09:52:00,
2013-07-10 04:54:00,70.5,64.0,28.67,WNW,292,3.3,8.1,80,0.00,CLR,,0.00,WeatherDisplay:10.37,2013-07-10 09:54:00,
2013-07-10 04:56:00,70.5,64.0,28.67,WNW,292,4.9,8.1,80,0.00,CLR,,0.00,WeatherDisplay:10.37,2013-07-10 09:56:00,
2013-07-10 04:57:00,70.5,64.0,28.67,WNW,292,6.9,8.1,80,0.00,CLR,,0.00,WeatherDisplay:10.37,2013-07-10 09:57:00,
2013-07-10 04:59:00,70.3,63.9,28.67,West,270,6.0,8.1,80,0.00,CLR,,0.00,WeatherDisplay:10.37,2013-07-10 09:59:00,
2013-07-10 05:00:00,70.5,64.0,28.67,NNW,338,8.7,11.5,80,0.00,CLR,,0.00,WeatherDisplay:10.37,2013-07-10 10:00:00,
2013-07-10 05:01:00,70.5,64.0,28.67,NW,315,8.7,11.5,80,0.00,CLR,,0.00,WeatherDisplay:10.37,2013-07-10 10:01:00,
2013-07-10 05:02:00,70.3,63.9,28.67,North,0,3.8,4.6,80,0.00,CLR,,0.00,WeatherDisplay:10.37,2013-07-10 10:02:00,
2013-07-10 05:04:00,70.2,63.7,28.67,NW,315,2.9,3.6,80,0.00,CLR,,0.00,WeatherDisplay:10.37,2013-07-10 10:04:00,
2013-07-10 05:05:00,70.2,63.7,28.67,NW,315,2.0,3.5,80,0.00,CLR,,0.00,WeatherDisplay:10.37,2013-07-10 10:05:00,
2013-07-10 05:06:00,70.2,63.7,28.67,WNW,292,4.3,10.5,80,0.00,CLR,,0.00,WeatherDisplay:10.37,2013-07-10 10:06:00,
2013-07-10 05:07:00,70.2,64.1,28.67,West,270,6.0,10.4,81,0.00,CLR,,0.00,WeatherDisplay:10.37,2013-07-10 10:07:00,
2013-07-10 05:09:00,70.0,63.9,28.67,NW,315,3.6,4.6,81,0.00,CLR,,0.00,WeatherDisplay:10.37,2013-07-10 10:09:00,
2013-07-10 05:10:00,70.0,63.9,28.67,NW,315,3.3,4.6,81,0.00,CLR,,0.00,WeatherDisplay:10.37,2013-07-10 10:10:00,
2013-07-10 05:11:00,70.0,63.9,28.67,NNW,338,6.4,8.1,81,0.00,CLR,,0.00,WeatherDisplay:10.37,2013-07-10 10:11:00,
2013-07-10 05:12:00,70.0,63.9,28.67,WSW,248,6.4,8.1,81,0.00,CLR,,0.00,WeatherDisplay:10.37,2013-07-10 10:12:00,
2013-07-10 05:13:00,70.0,63.9,28.67,WNW,292,4.9,6.9,81,0.00,CLR,,0.00,WeatherDisplay:10.37,2013-07-10 10:13:00,
2013-07-10 05:14:00,70.0,63.9,28.67,North,0,3.6,5.8,81,0.00,CLR,,0.00,WeatherDisplay:10.37,2013-07-10 10:14:00,
2013-07-10 05:15:00,70.0,63.9,28.67,NNE,22,3.6,6.9,81,0.00,CLR,,0.00,WeatherDisplay:10.37,2013-07-10 10:15:00,
2013-07-10 05:16:00,70.0,63.9,28.67,NNE,22,2.9,6.9,81,0.00,CLR,,0.00,WeatherDisplay:10.37,2013-07-10 10:16:00,
2013-07-10 05:17:00,70.0,63.9,28.67,WNW,292,2.9,4.6,81,0.00,CLR,,0.00,WeatherDisplay:10.37,2013-07-10 10:17:00,
2013-07-10 05:18:00,69.8,63.7,28.67,WNW,292,4.3,5.6,81,0.00,CLR,,0.00,WeatherDisplay:10.37,2013-07-10 10:18:00,
2013-07-10 05:19:00,69.8,64.1,28.67,NW,315,4.7,5.8,82,0.00,CLR,,0.00,WeatherDisplay:10.37,2013-07-10 10:19:00,
2013-07-10 05:20:00,69.8,64.1,28.67,WNW,292,5.9,8.1,82,0.00,CLR,,0.00,WeatherDisplay:10.37,2013-07-10 10:20:00,
2013-07-10 05:22:00,70.0,64.2,28.67,NW,315,5.4,9.4,82,0.00,CLR,,0.00,WeatherDisplay:10.37,2013-07-10 10:22:00,
2013-07-10 05:23:00,70.0,64.2,28.67,NNW,338,5.4,8.1,82,0.00,CLR,,0.00,WeatherDisplay:10.37,2013-07-10 10:23:00,
2013-07-10 05:25:00,70.0,64.2,28.64,NW,315,5.9,5.9,82,0.00,CLR,,0.00,WeatherDisplay:10.37,2013-07-10 10:25:00,
2013-07-10 05:27:00,69.8,64.1,28.64,WNW,292,3.1,5.8,82,0.00,CLR,,0.00,WeatherDisplay:10.37,2013-07-10 10:27:00,
2013-07-10 05:28:00,69.6,63.9,28.64,West,270,3.3,5.4,82,0.00,CLR,,0.00,WeatherDisplay:10.37,2013-07-10 10:28:00,
2013-07-10 05:30:00,69.6,63.9,28.64,NW,315,4.3,5.8,82,0.00,CLR,,0.00,WeatherDisplay:10.37,2013-07-10 10:30:00,
2013-07-10 05:32:00,69.4,64.0,28.64,NW,315,4.9,5.8,83,0.00,CLR,,0.00,WeatherDisplay:10.37,2013-07-10 10:32:00,
2013-07-10 05:33:00,69.4,64.0,28.64,North,0,5.4,5.9,83,0.00,CLR,,0.00,WeatherDisplay:10.37,2013-07-10 10:33:00,
2013-07-10 05:35:00,69.4,64.0,28.64,NNW,338,4.9,6.9,83,0.00,CLR,,0.00,WeatherDisplay:10.37,2013-07-10 10:35:00,
2013-07-10 05:36:00,69.4,64.0,28.64,NNW,338,2.6,3.5,83,0.00,CLR,,0.00,WeatherDisplay:10.37,2013-07-10 10:36:00,
2013-07-10 05:37:00,69.4,64.0,28.64,NW,315,4.0,5.6,83,0.00,CLR,,0.00,WeatherDisplay:10.37,2013-07-10 10:37:00,
2013-07-10 05:38:00,69.4,64.0,28.64,NW,315,4.0,5.8,83,0.00,CLR,,0.00,WeatherDisplay:10.37,2013-07-10 10:38:00,
2013-07-10 05:39:00,69.3,63.9,28.64,North,0,3.6,3.6,83,0.00,CLR,,0.00,WeatherDisplay:10.37,2013-07-10 10:39:00,
2013-07-10 05:40:00,69.3,63.9,28.67,NW,315,2.6,3.5,83,0.00,CLR,,0.00,WeatherDisplay:10.37,2013-07-10 10:40:00,
2013-07-10 05:41:00,69.3,63.9,28.67,NNW,338,2.0,2.3,83,0.00,CLR,,0.00,WeatherDisplay:10.37,2013-07-10 10:41:00,
2013-07-10 05:42:00,69.1,63.7,28.67,NNW,338,3.1,4.6,83,0.00,CLR,,0.00,WeatherDisplay:10.37,2013-07-10 10:42:00,
2013-07-10 05:43:00,69.1,64.0,28.67,NW,315,3.1,4.6,84,0.00,CLR,,0.00,WeatherDisplay:10.37,2013-07-10 10:43:00,
2013-07-10 05:44:00,68.9,63.9,28.67,NNW,338,2.9,3.5,84,0.00,CLR,,0.00,WeatherDisplay:10.37,2013-07-10 10:44:00,
2013-07-10 05:45:00,68.9,63.9,28.67,NW,315,3.1,4.6,84,0.00,CLR,,0.00,WeatherDisplay:10.37,2013-07-10 10:45:00,
2013-07-10 05:46:00,68.9,63.9,28.67,NW,315,3.3,4.6,84,0.00,CLR,,0.00,WeatherDisplay:10.37,2013-07-10 10:46:00,
2013-07-10 05:48:00,68.7,64.0,28.67,NW,315,2.4,6.0,85,0.00,CLR,,0.00,WeatherDisplay:10.37,2013-07-10 10:48:00,
2013-07-10 05:49:00,68.7,64.0,28.67,North,0,3.1,5.8,85,0.00,CLR,,0.00,WeatherDisplay:10.37,2013-07-10 10:49:00,
2013-07-10 05:51:00,68.7,64.0,28.67,WNW,292,2.4,4.0,85,0.00,CLR,,0.00,WeatherDisplay:10.37,2013-07-10 10:51:00,
2013-07-10 05:53:00,68.7,64.0,28.67,NW,315,2.2,3.5,85,0.00,CLR,,0.00,WeatherDisplay:10.37,2013-07-10 10:53:00,
2013-07-10 05:54:00,68.7,64.0,28.67,North,0,2.2,3.5,85,0.00,CLR,,0.00,WeatherDisplay:10.37,2013-07-10 10:54:00,
2013-07-10 05:55:00,68.7,64.0,28.67,NW,317,2.0,5.0,85,0.00,CLR,,0.00,WeatherDisplay:10.37,2013-07-10 10:55:00,
2013-07-10 05:56:00,68.5,63.8,28.67,North,0,3.6,4.3,85,0.00,CLR,,0.00,WeatherDisplay:10.37,2013-07-10 10:56:00,
2013-07-10 05:57:00,68.5,64.2,28.67,NNW,338,3.6,5.4,86,0.00,CLR,,0.00,WeatherDisplay:10.37,2013-07-10 10:57:00,
2013-07-10 05:58:00,68.5,64.2,28.67,NW,315,3.3,5.8,86,0.00,CLR,,0.00,WeatherDisplay:10.37,2013-07-10 10:58:00,
2013-07-10 05:59:00,68.5,64.2,28.67,NW,315,4.5,5.8,86,0.00,CLR,,0.00,WeatherDisplay:10.37,2013-07-10 10:59:00,
2013-07-10 06:00:00,68.5,64.2,28.67,North,0,3.6,4.6,86,0.00,CLR,,0.00,WeatherDisplay:10.37,2013-07-10 11:00:00,
2013-07-10 06:01:00,68.5,64.2,28.67,NW,315,3.6,5.9,86,0.00,CLR,,0.00,WeatherDisplay:10.37,2013-07-10 11:01:00,
2013-07-10 06:02:00,68.5,64.2,28.67,WNW,292,3.3,5.8,86,0.00,CLR,,0.00,WeatherDisplay:10.37,2013-07-10 11:02:00,
2013-07-10 06:03:00,68.5,64.2,28.67,NW,315,3.1,5.4,86,0.00,CLR,,0.00,WeatherDisplay:10.37,2013-07-10 11:03:00,
2013-07-10 06:04:00,68.5,64.2,28.67,North,0,4.7,6.4,86,0.00,CLR,,0.00,WeatherDisplay:10.37,2013-07-10 11:04:00,
2013-07-10 06:06:00,68.5,64.2,28.67,NNW,338,4.3,5.9,86,0.00,CLR,,0.00,WeatherDisplay:10.37,2013-07-10 11:06:00,
2013-07-10 06:07:00,68.5,64.2,28.67,NNW,338,4.3,5.8,86,0.00,CLR,,0.00,WeatherDisplay:10.37,2013-07-10 11:07:00,
2013-07-10 06:08:00,68.5,64.2,28.67,NW,315,5.6,8.1,86,0.00,CLR,,0.00,WeatherDisplay:10.37,2013-07-10 11:08:00,
2013-07-10 06:09:00,68.5,64.2,28.67,WNW,292,4.7,5.8,86,0.00,CLR,,0.00,WeatherDisplay:10.37,2013-07-10 11:09:00,
2013-07-10 06:11:00,68.5,63.8,28.67,NW,315,3.3,4.6,85,0.00,CLR,,0.00,WeatherDisplay:10.37,2013-07-10 11:11:00,
2013-07-10 06:12:00,68.5,63.8,28.67,North,0,3.3,5.8,85,0.00,CLR,,0.00,WeatherDisplay:10.37,2013-07-10 11:12:00,
2013-07-10 06:13:00,68.5,63.8,28.67,WNW,292,2.9,4.6,85,0.00,CLR,,0.00,WeatherDisplay:10.37,2013-07-10 11:13:00,
2013-07-10 06:14:00,68.5,63.8,28.67,NW,315,2.6,4.6,85,0.00,CLR,,0.00,WeatherDisplay:10.37,2013-07-10 11:14:00,
2013-07-10 06:16:00,68.4,63.7,28.67,NNW,338,4.5,5.8,85,0.00,CLR,,0.00,WeatherDisplay:10.37,2013-07-10 11:16:00,
2013-07-10 06:17:00,68.4,63.7,28.67,NW,315,4.5,5.8,85,0.00,CLR,,0.00,WeatherDisplay:10.37,2013-07-10 11:17:00,
2013-07-10 06:18:00,68.4,63.7,28.67,North,0,2.9,5.4,85,0.00,CLR,,0.00,WeatherDisplay:10.37,2013-07-10 11:18:00,
2013-07-10 06:19:00,68.4,63.7,28.67,NNW,338,4.5,5.8,85,0.00,CLR,,0.00,WeatherDisplay:10.37,2013-07-10 11:19:00,
2013-07-10 06:20:00,68.4,63.7,28.67,North,0,3.3,5.8,85,0.00,CLR,,0.00,WeatherDisplay:10.37,2013-07-10 11:20:00,
2013-07-10 06:21:00,68.4,63.3,28.67,NNW,338,4.9,8.1,84,0.00,CLR,,0.00,WeatherDisplay:10.37,2013-07-10 11:21:00,
2013-07-10 06:22:00,68.4,63.3,28.67,NW,315,4.9,5.9,84,0.00,CLR,,0.00,WeatherDisplay:10.37,2013-07-10 11:22:00,
2013-07-10 06:23:00,68.4,63.3,28.67,NW,315,5.4,5.8,84,0.00,CLR,,0.00,WeatherDisplay:10.37,2013-07-10 11:23:00,
2013-07-10 06:24:00,68.4,63.3,28.67,WNW,292,4.7,5.8,84,0.00,CLR,,0.00,WeatherDisplay:10.37,2013-07-10 11:24:00,
2013-07-10 06:25:00,68.4,63.3,28.67,NW,326,5.0,8.0,84,0.00,CLR,,0.00,WeatherDisplay:10.37,2013-07-10 11:25:00,
2013-07-10 06:26:00,68.4,63.0,28.67,WNW,292,4.5,5.9,83,0.00,CLR,,0.00,WeatherDisplay:10.37,2013-07-10 11:26:00,
2013-07-10 06:27:00,68.4,63.0,28.67,NW,315,4.5,6.2,83,0.00,CLR,,0.00,WeatherDisplay:10.37,2013-07-10 11:27:00,
2013-07-10 06:28:00,68.5,62.8,28.67,NW,315,4.5,5.8,82,0.00,CLR,,0.00,WeatherDisplay:10.37,2013-07-10 11:28:00,
2013-07-10 06:29:00,68.5,62.8,28.67,NW,315,4.5,5.8,82,0.00,CLR,,0.00,WeatherDisplay:10.37,2013-07-10 11:29:00,
2013-07-10 06:30:00,68.5,62.5,28.67,North,0,5.6,6.9,81,0.00,CLR,,0.00,WeatherDisplay:10.37,2013-07-10 11:30:00,
2013-07-10 06:32:00,68.7,62.3,28.67,North,0,5.4,6.9,80,0.00,CLR,,0.00,WeatherDisplay:10.37,2013-07-10 11:32:00,
2013-07-10 06:33:00,68.7,62.3,28.67,NNW,338,3.8,6.9,80,0.00,CLR,,0.00,WeatherDisplay:10.37,2013-07-10 11:33:00,
2013-07-10 06:34:00,68.7,62.3,28.67,NW,315,4.7,5.8,80,0.00,CLR,,0.00,WeatherDisplay:10.37,2013-07-10 11:34:00,
2013-07-10 06:35:00,68.7,62.3,28.67,NW,315,4.9,8.1,80,0.00,CLR,,0.00,WeatherDisplay:10.37,2013-07-10 11:35:00,
2013-07-10 06:37:00,69.1,61.6,28.67,NNW,338,7.4,9.2,77,0.00,CLR,,0.00,WeatherDisplay:10.37,2013-07-10 11:37:00,
2013-07-10 06:38:00,69.1,61.2,28.67,NW,315,8.1,10.7,76,0.00,CLR,,0.00,WeatherDisplay:10.37,2013-07-10 11:38:00,
2013-07-10 06:39:00,69.3,60.6,28.67,NW,315,8.1,13.8,74,0.00,CLR,,0.00,WeatherDisplay:10.37,2013-07-10 11:39:00,
2013-07-10 06:40:00,69.4,60.8,28.67,NW,315,9.0,12.7,74,0.00,CLR,,0.00,WeatherDisplay:10.37,2013-07-10 11:40:00,
2013-07-10 06:42:00,69.6,61.0,28.67,NW,315,5.6,11.5,74,0.00,CLR,,0.00,WeatherDisplay:10.37,2013-07-10 11:42:00,
2013-07-10 06:44:00,70.0,60.9,28.67,NW,315,5.9,9.2,73,0.00,CLR,,0.00,WeatherDisplay:10.37,2013-07-10 11:44:00,
2013-07-10 06:45:00,69.8,60.8,28.67,North,0,6.0,9.2,73,0.00,CLR,,0.00,WeatherDisplay:10.37,2013-07-10 11:45:00,
2013-07-10 06:47:00,69.8,60.8,28.67,North,0,5.6,8.1,73,0.00,CLR,,0.00,WeatherDisplay:10.37,2013-07-10 11:47:00,
2013-07-10 06:48:00,69.6,59.8,28.67,WNW,292,5.6,8.1,71,0.00,CLR,,0.00,WeatherDisplay:10.37,2013-07-10 11:48:00,
2013-07-10 06:49:00,69.6,59.8,28.67,North,0,9.2,9.2,71,0.00,CLR,,0.00,WeatherDisplay:10.37,2013-07-10 11:49:00,
2013-07-10 06:50:00,70.0,59.7,28.67,North,0,8.5,12.7,70,0.00,CLR,,0.00,WeatherDisplay:10.37,2013-07-10 11:50:00,
2013-07-10 06:52:00,70.5,60.3,28.67,NW,315,6.9,8.1,70,0.00,CLR,,0.00,WeatherDisplay:10.37,2013-07-10 11:52:00,
2013-07-10 06:53:00,70.7,60.0,28.67,WNW,292,6.9,8.1,69,0.00,CLR,,0.00,WeatherDisplay:10.37,2013-07-10 11:53:00,
2013-07-10 06:55:00,71.1,60.4,28.70,NW,315,4.5,8.5,69,0.00,CLR,,0.00,WeatherDisplay:10.37,2013-07-10 11:55:00,
2013-07-10 06:57:00,70.9,60.2,28.70,NW,315,4.0,6.4,69,0.00,CLR,,0.00,WeatherDisplay:10.37,2013-07-10 11:57:00,
2013-07-10 06:58:00,70.7,59.6,28.70,NNE,22,6.4,10.4,68,0.00,CLR,,0.00,WeatherDisplay:10.37,2013-07-10 11:58:00,
2013-07-10 07:00:00,70.7,59.6,28.70,NNW,340,7.0,11.0,68,0.00,CLR,,0.00,WeatherDisplay:10.37,2013-07-10 12:00:00,
2013-07-10 07:03:00,70.0,58.1,28.70,North,0,8.1,10.2,66,0.00,CLR,,0.00,WeatherDisplay:10.37,2013-07-10 12:03:00,
2013-07-10 07:05:00,69.8,57.9,28.70,NNW,337,7.0,13.0,66,0.00,CLR,,0.00,WeatherDisplay:10.37,2013-07-10 12:05:00,
2013-07-10 07:06:00,70.0,58.1,28.70,WNW,292,6.0,6.0,66,0.00,CLR,,0.00,WeatherDisplay:10.37,2013-07-10 12:06:00,
2013-07-10 07:08:00,70.2,58.3,28.70,NNW,338,6.4,11.5,66,0.00,CLR,,0.00,WeatherDisplay:10.37,2013-07-10 12:08:00,
2013-07-10 07:09:00,70.2,57.8,28.70,NW,315,8.7,11.5,65,0.00,CLR,,0.00,WeatherDisplay:10.37,2013-07-10 12:09:00,
2013-07-10 07:10:00,70.2,57.8,28.70,NNW,328,8.0,12.0,65,0.00,CLR,,0.00,WeatherDisplay:10.37,2013-07-10 12:10:00,
2013-07-10 07:11:00,70.0,57.2,28.70,NW,315,7.6,8.5,64,0.00,CLR,,0.00,WeatherDisplay:10.37,2013-07-10 12:11:00,
2013-07-10 07:13:00,70.2,57.4,28.70,West,270,7.8,10.4,64,0.00,CLR,,0.00,WeatherDisplay:10.37,2013-07-10 12:13:00,
2013-07-10 07:14:00,70.2,57.4,28.70,NW,315,8.7,11.5,64,0.00,CLR,,0.00,WeatherDisplay:10.37,2013-07-10 12:14:00,
2013-07-10 07:15:00,70.5,57.3,28.70,NNW,338,8.7,8.7,63,0.00,CLR,,0.00,WeatherDisplay:10.37,2013-07-10 12:15:00,
2013-07-10 07:16:00,70.9,57.7,28.70,WNW,292,5.6,8.5,63,0.00,CLR,,0.00,WeatherDisplay:10.37,2013-07-10 12:16:00,
2013-07-10 07:18:00,71.6,57.4,28.70,North,0,6.0,6.9,61,0.00,CLR,,0.00,WeatherDisplay:10.37,2013-07-10 12:18:00,
2013-07-10 07:19:00,71.8,57.6,28.70,NW,315,6.2,8.1,61,0.00,CLR,,0.00,WeatherDisplay:10.37,2013-07-10 12:19:00,
2013-07-10 07:20:00,71.6,56.5,28.70,WNW,292,8.7,10.4,59,0.00,CLR,,0.00,WeatherDisplay:10.37,2013-07-10 12:20:00,
2013-07-10 07:21:00,71.6,56.5,28.70,WNW,292,10.2,13.8,59,0.00,CLR,,0.00,WeatherDisplay:10.37,2013-07-10 12:21:00,
2013-07-10 07:23:00,71.4,55.4,28.70,WNW,292,10.2,13.8,57,0.00,CLR,,0.00,WeatherDisplay:10.37,2013-07-10 12:23:00,
2013-07-10 07:24:00,71.4,55.9,28.70,NW,315,7.1,11.5,58,0.00,CLR,,0.00,WeatherDisplay:10.37,2013-07-10 12:24:00,
2013-07-10 07:25:00,71.4,54.9,28.70,North,0,9.7,13.5,56,0.00,CLR,,0.00,WeatherDisplay:10.37,2013-07-10 12:25:00,
2013-07-10 07:26:00,71.2,54.7,28.70,North,0,9.4,13.8,56,0.00,CLR,,0.00,WeatherDisplay:10.37,2013-07-10 12:26:00,
2013-07-10 07:27:00,71.4,54.9,28.70,NNW,338,8.1,10.4,56,0.00,CLR,,0.00,WeatherDisplay:10.37,2013-07-10 12:27:00,
2013-07-10 07:28:00,71.2,53.7,28.70,NW,315,10.7,13.8,54,0.00,CLR,,0.00,WeatherDisplay:10.37,2013-07-10 12:28:00,
2013-07-10 07:29:00,71.2,53.7,28.70,NW,315,10.2,15.0,54,0.00,CLR,,0.00,WeatherDisplay:10.37,2013-07-10 12:29:00,
2013-07-10 07:30:00,71.2,53.7,28.70,NNW,338,10.9,12.7,54,0.00,CLR,,0.00,WeatherDisplay:10.37,2013-07-10 12:30:00,
2013-07-10 07:32:00,71.1,53.1,28.70,WNW,292,10.2,15.0,53,0.00,CLR,,0.00,WeatherDisplay:10.37,2013-07-10 12:32:00,
2013-07-10 07:34:00,71.1,52.0,28.70,NW,315,11.2,15.2,51,0.00,CLR,,0.00,WeatherDisplay:10.37,2013-07-10 12:34:00,
2013-07-10 07:35:00,71.1,52.0,28.70,North,0,10.2,15.0,51,0.00,CLR,,0.00,WeatherDisplay:10.37,2013-07-10 12:35:00,
2013-07-10 07:37:00,71.1,52.0,28.70,WNW,292,7.6,12.7,51,0.00,CLR,,0.00,WeatherDisplay:10.37,2013-07-10 12:37:00,
2013-07-10 07:39:00,71.1,52.0,28.70,NW,315,10.0,12.7,51,0.00,CLR,,0.00,WeatherDisplay:10.37,2013-07-10 12:39:00,
2013-07-10 07:40:00,71.1,52.0,28.73,NW,315,10.0,12.7,51,0.00,CLR,,0.00,WeatherDisplay:10.37,2013-07-10 12:40:00,
2013-07-10 07:42:00,70.7,51.7,28.73,NNE,22,9.8,12.7,51,0.00,CLR,,0.00,WeatherDisplay:10.37,2013-07-10 12:42:00,
2013-07-10 07:44:00,70.7,52.2,28.73,NNW,338,8.1,12.7,52,0.00,CLR,,0.00,WeatherDisplay:10.37,2013-07-10 12:44:00,
2013-07-10 07:45:00,70.7,52.2,28.73,North,0,6.2,9.2,52,0.00,CLR,,0.00,WeatherDisplay:10.37,2013-07-10 12:45:00,
2013-07-10 07:46:00,70.9,52.4,28.73,NNE,22,8.5,13.8,52,0.00,CLR,,0.00,WeatherDisplay:10.37,2013-07-10 12:46:00,
2013-07-10 07:47:00,70.3,52.4,28.73,NNW,338,7.6,12.7,53,0.00,CLR,,0.00,WeatherDisplay:10.37,2013-07-10 12:47:00,
2013-07-10 07:50:00,70.3,52.9,28.73,NNW,338,7.8,11.5,54,0.00,CLR,,0.00,WeatherDisplay:10.37,2013-07-10 12:50:00,
2013-07-10 07:51:00,70.5,53.1,28.73,NW,315,7.6,9.2,54,0.00,CLR,,0.00,WeatherDisplay:10.37,2013-07-10 12:51:00,
2013-07-10 07:52:00,70.2,52.2,28.73,NW,315,7.1,9.2,53,0.00,CLR,,0.00,WeatherDisplay:10.37,2013-07-10 12:52:00,
2013-07-10 07:53:00,70.9,52.9,28.73,NW,315,6.2,8.1,53,0.00,CLR,,0.00,WeatherDisplay:10.37,2013-07-10 12:53:00,
2013-07-10 07:55:00,71.4,53.4,28.73,North,0,6.0,7.6,53,0.00,CLR,,0.00,WeatherDisplay:10.37,2013-07-10 12:55:00,
2013-07-10 07:56:00,71.4,53.4,28.73,NNW,338,8.5,9.2,53,0.00,CLR,,0.00,WeatherDisplay:10.37,2013-07-10 12:56:00,
2013-07-10 07:57:00,71.2,53.7,28.73,WNW,292,6.9,10.4,54,0.00,CLR,,0.00,WeatherDisplay:10.37,2013-07-10 12:57:00,
2013-07-10 07:58:00,71.2,53.7,28.73,North,0,6.2,10.0,54,0.00,CLR,,0.00,WeatherDisplay:10.37,2013-07-10 12:58:00,
2013-07-10 08:00:00,71.2,53.2,28.73,NNW,338,6.4,9.2,53,0.00,CLR,,0.00,WeatherDisplay:10.37,2013-07-10 13:00:00,
2013-07-10 08:02:00,71.2,53.2,28.73,WNW,292,9.8,13.8,53,0.00,CLR,,0.00,WeatherDisplay:10.37,2013-07-10 13:02:00,
2013-07-10 08:04:00,71.2,53.7,28.73,NW,315,7.4,7.4,54,0.00,CLR,,0.00,WeatherDisplay:10.37,2013-07-10 13:04:00,
2013-07-10 08:05:00,70.7,52.7,28.73,North,0,6.9,9.7,53,0.00,CLR,,0.00,WeatherDisplay:10.37,2013-07-10 13:05:00,
2013-07-10 08:07:00,71.1,53.6,28.73,North,0,4.9,6.9,54,0.00,CLR,,0.00,WeatherDisplay:10.37,2013-07-10 13:07:00,
2013-07-10 08:08:00,71.1,53.6,28.73,WNW,292,4.3,5.8,54,0.00,CLR,,0.00,WeatherDisplay:10.37,2013-07-10 13:08:00,
2013-07-10 08:09:00,71.1,54.1,28.73,North,0,5.4,7.6,55,0.00,CLR,,0.00,WeatherDisplay:10.37,2013-07-10 13:09:00,
2013-07-10 08:10:00,70.9,53.9,28.73,North,0,5.6,8.1,55,0.00,CLR,,0.00,WeatherDisplay:10.37,2013-07-10 13:10:00,
2013-07-10 08:11:00,70.7,53.7,28.73,NW,315,5.6,6.9,55,0.00,CLR,,0.00,WeatherDisplay:10.37,2013-07-10 13:11:00,
2013-07-10 08:12:00,70.5,53.6,28.73,NW,315,6.2,6.9,55,0.00,CLR,,0.00,WeatherDisplay:10.37,2013-07-10 13:12:00,
2013-07-10 08:13:00,70.5,53.6,28.73,NW,315,6.2,6.9,55,0.00,CLR,,0.00,WeatherDisplay:10.37,2013-07-10 13:13:00,
2013-07-10 08:14:00,70.5,53.6,28.73,NNW,338,5.6,6.9,55,0.00,CLR,,0.00,WeatherDisplay:10.37,2013-07-10 13:14:00,
2013-07-10 08:15:00,70.3,53.9,28.73,NE,45,4.0,5.8,56,0.00,CLR,,0.00,WeatherDisplay:10.37,2013-07-10 13:15:00,
2013-07-10 08:16:00,70.5,54.1,28.73,NNW,338,4.0,6.9,56,0.00,CLR,,0.00,WeatherDisplay:10.37,2013-07-10 13:16:00,
2013-07-10 08:18:00,71.2,54.7,28.73,WSW,248,4.0,5.8,56,0.00,CLR,,0.00,WeatherDisplay:10.37,2013-07-10 13:18:00,
2013-07-10 08:19:00,71.8,55.2,28.73,NW,315,4.7,5.8,56,0.00,CLR,,0.00,WeatherDisplay:10.37,2013-07-10 13:19:00,
2013-07-10 08:20:00,72.3,55.2,28.73,NNW,338,6.4,6.9,55,0.00,CLR,,0.00,WeatherDisplay:10.37,2013-07-10 13:20:00,
2013-07-10 08:21:00,72.0,54.4,28.73,WNW,292,5.9,9.8,54,0.00,CLR,,0.00,WeatherDisplay:10.37,2013-07-10 13:21:00,
2013-07-10 08:23:00,72.0,53.9,28.73,NNE,22,5.6,6.9,53,0.00,CLR,,0.00,WeatherDisplay:10.37,2013-07-10 13:23:00,
2013-07-10 08:25:00,72.5,54.9,28.73,NNW,337,5.0,10.0,54,0.00,CLR,,0.00,WeatherDisplay:10.37,2013-07-10 13:25:00,
2013-07-10 08:26:00,72.9,55.7,28.73,North,0,4.3,8.1,55,0.00,CLR,,0.00,WeatherDisplay:10.37,2013-07-10 13:26:00,
2013-07-10 08:28:00,73.6,55.4,28.73,NW,315,3.3,4.6,53,0.00,CLR,,0.00,WeatherDisplay:10.37,2013-07-10 13:28:00,
2013-07-10 08:30:00,73.8,55.6,28.73,NNW,338,3.0,8.0,53,0.00,CLR,,0.00,WeatherDisplay:10.37,2013-07-10 13:30:00,
2013-07-10 08:31:00,74.3,56.1,28.73,NW,315,4.3,5.8,53,0.00,CLR,,0.00,WeatherDisplay:10.37,2013-07-10 13:31:00,
2013-07-10 08:32:00,74.5,56.2,28.73,North,0,4.0,7.6,53,0.00,CLR,,0.00,WeatherDisplay:10.37,2013-07-10 13:32:00,
2013-07-10 08:33:00,73.8,54.0,28.73,NNW,338,5.9,8.1,50,0.00,CLR,,0.00,WeatherDisplay:10.37,2013-07-10 13:33:00,
2013-07-10 08:35:00,73.3,53.5,28.73,NNW,332,7.0,9.0,50,0.00,CLR,,0.00,WeatherDisplay:10.37,2013-07-10 13:35:00,
2013-07-10 08:36:00,73.9,55.7,28.73,NW,315,3.1,3.5,53,0.00,CLR,,0.00,WeatherDisplay:10.37,2013-07-10 13:36:00,
2013-07-10 08:37:00,73.9,55.7,28.73,NW,315,3.3,5.9,53,0.00,CLR,,0.00,WeatherDisplay:10.37,2013-07-10 13:37:00,
2013-07-10 08:38:00,73.6,54.9,28.73,West,270,3.3,5.8,52,0.00,CLR,,0.00,WeatherDisplay:10.37,2013-07-10 13:38:00,
2013-07-10 08:40:00,73.6,54.9,28.73,NNE,22,5.6,5.8,52,0.00,CLR,,0.00,WeatherDisplay:10.37,2013-07-10 13:40:00,
2013-07-10 08:41:00,73.6,55.4,28.73,North,0,3.6,5.8,53,0.00,CLR,,0.00,WeatherDisplay:10.37,2013-07-10 13:41:00,
2013-07-10 08:42:00,73.6,55.4,28.73,North,0,3.6,5.8,53,0.00,CLR,,0.00,WeatherDisplay:10.37,2013-07-10 13:42:00,
2013-07-10 08:43:00,73.0,54.4,28.73,NNW,338,6.4,7.4,52,0.00,CLR,,0.00,WeatherDisplay:10.37,2013-07-10 13:43:00,
2013-07-10 08:45:00,73.0,54.4,28.73,NW,315,5.6,6.9,52,0.00,CLR,,0.00,WeatherDisplay:10.37,2013-07-10 13:45:00,
2013-07-10 08:46:00,73.8,55.0,28.73,NNW,338,6.4,8.1,52,0.00,CLR,,0.00,WeatherDisplay:10.37,2013-07-10 13:46:00,
2013-07-10 08:47:00,73.4,54.7,28.73,WNW,292,6.2,9.2,52,0.00,CLR,,0.00,WeatherDisplay:10.37,2013-07-10 13:47:00,
2013-07-10 08:49:00,72.7,54.0,28.73,NNW,338,7.8,11.5,52,0.00,CLR,,0.00,WeatherDisplay:10.37,2013-07-10 13:49:00,
2013-07-10 08:50:00,72.7,54.0,28.73,North,0,8.5,9.2,52,0.00,CLR,,0.00,WeatherDisplay:10.37,2013-07-10 13:50:00,
2013-07-10 08:51:00,73.9,55.7,28.73,NNW,338,6.0,8.1,53,0.00,CLR,,0.00,WeatherDisplay:10.37,2013-07-10 13:51:00,
2013-07-10 08:52:00,73.9,55.7,28.73,NW,315,6.9,10.4,53,0.00,CLR,,0.00,WeatherDisplay:10.37,2013-07-10 13:52:00,
2013-07-10 08:54:00,73.2,54.5,28.73,North,0,7.8,10.4,52,0.00,CLR,,0.00,WeatherDisplay:10.37,2013-07-10 13:54:00,
2013-07-10 08:55:00,72.9,54.2,28.73,NW,315,7.8,9.2,52,0.00,CLR,,0.00,WeatherDisplay:10.37,2013-07-10 13:55:00,
2013-07-10 08:56:00,72.3,54.2,28.73,NW,315,5.4,7.8,53,0.00,CLR,,0.00,WeatherDisplay:10.37,2013-07-10 13:56:00,
2013-07-10 08:57:00,72.9,54.7,28.73,NNW,338,4.5,8.1,53,0.00,CLR,,0.00,WeatherDisplay:10.37,2013-07-10 13:57:00,
2013-07-10 08:59:00,73.9,55.2,28.73,West,270,6.9,10.4,52,0.00,CLR,,0.00,WeatherDisplay:10.37,2013-07-10 13:59:00,
2013-07-10 09:00:00,73.8,54.5,28.73,NNE,22,9.0,10.4,51,0.00,CLR,,0.00,WeatherDisplay:10.37,2013-07-10 14:00:00,
2013-07-10 09:02:00,74.1,54.8,28.73,WNW,292,7.4,13.8,51,0.00,CLR,,0.00,WeatherDisplay:10.37,2013-07-10 14:02:00,
2013-07-10 09:04:00,74.1,55.4,28.73,NW,315,6.7,10.4,52,0.00,CLR,,0.00,WeatherDisplay:10.37,2013-07-10 14:04:00,
2013-07-10 09:05:00,74.1,55.4,28.73,WNW,292,8.1,8.5,52,0.00,CLR,,0.00,WeatherDisplay:10.37,2013-07-10 14:05:00,
2013-07-10 09:07:00,74.5,55.2,28.73,North,0,9.2,13.8,51,0.00,CLR,,0.00,WeatherDisplay:10.37,2013-07-10 14:07:00,
2013-07-10 09:09:00,74.8,54.4,28.73,North,0,5.9,8.7,49,0.00,CLR,,0.00,WeatherDisplay:10.37,2013-07-10 14:09:00,
2013-07-10 09:10:00,74.8,54.4,28.73,NW,315,7.6,12.7,49,0.00,CLR,,0.00,WeatherDisplay:10.37,2013-07-10 14:10:00,
2013-07-10 09:12:00,75.0,55.1,28.73,NW,315,7.1,8.1,50,0.00,CLR,,0.00,WeatherDisplay:10.37,2013-07-10 14:12:00,
2013-07-10 09:13:00,75.0,55.1,28.73,NW,315,7.1,8.1,50,0.00,CLR,,0.00,WeatherDisplay:10.37,2013-07-10 14:13:00,
2013-07-10 09:14:00,75.0,55.1,28.73,North,0,6.0,6.9,50,0.00,CLR,,0.00,WeatherDisplay:10.37,2013-07-10 14:14:00,
2013-07-10 09:16:00,75.0,55.1,28.73,North,0,6.9,7.4,50,0.00,CLR,,0.00,WeatherDisplay:10.37,2013-07-10 14:16:00,
2013-07-10 09:17:00,75.0,55.1,28.73,North,0,7.6,13.2,50,0.00,CLR,,0.00,WeatherDisplay:10.37,2013-07-10 14:17:00,
2013-07-10 09:18:00,75.0,55.1,28.73,North,0,7.6,13.2,50,0.00,CLR,,0.00,WeatherDisplay:10.37,2013-07-10 14:18:00,
2013-07-10 09:19:00,74.5,52.3,28.73,North,0,5.6,13.8,46,0.00,CLR,,0.00,WeatherDisplay:10.37,2013-07-10 14:19:00,
2013-07-10 09:21:00,74.5,54.1,28.73,North,0,7.4,12.7,49,0.00,CLR,,0.00,WeatherDisplay:10.37,2013-07-10 14:21:00,
2013-07-10 09:23:00,74.7,53.1,28.73,NW,315,6.2,11.5,47,0.00,CLR,,0.00,WeatherDisplay:10.37,2013-07-10 14:23:00,
2013-07-10 09:24:00,74.1,52.0,28.73,NW,315,11.2,17.3,46,0.00,CLR,,0.00,WeatherDisplay:10.37,2013-07-10 14:24:00,
2013-07-10 09:26:00,74.5,52.9,28.73,NW,315,6.4,9.2,47,0.00,CLR,,0.00,WeatherDisplay:10.37,2013-07-10 14:26:00,
2013-07-10 09:27:00,74.5,52.9,28.73,NW,315,6.4,9.2,47,0.00,CLR,,0.00,WeatherDisplay:10.37,2013-07-10 14:27:00,
2013-07-10 09:28:00,74.1,52.6,28.73,NW,315,9.7,10.7,47,0.00,CLR,,0.00,WeatherDisplay:10.37,2013-07-10 14:28:00,
2013-07-10 09:30:00,73.4,51.9,28.73,NW,315,9.7,13.0,47,0.00,CLR,,0.00,WeatherDisplay:10.37,2013-07-10 14:30:00,
2013-07-10 09:31:00,74.1,52.6,28.73,WNW,292,7.4,12.7,47,0.00,CLR,,0.00,WeatherDisplay:10.37,2013-07-10 14:31:00,
2013-07-10 09:32:00,74.7,53.7,28.73,NW,315,6.7,8.1,48,0.00,CLR,,0.00,WeatherDisplay:10.37,2013-07-10 14:32:00,
2013-07-10 09:33:00,75.0,53.4,28.73,NNW,338,5.9,6.9,47,0.00,CLR,,0.00,WeatherDisplay:10.37,2013-07-10 14:33:00,
2013-07-10 09:35:00,73.4,51.4,28.73,NNW,338,9.4,13.8,46,0.00,CLR,,0.00,WeatherDisplay:10.37,2013-07-10 14:35:00,
2013-07-10 09:36:00,73.8,52.3,28.73,NW,315,7.6,10.5,47,0.00,CLR,,0.00,WeatherDisplay:10.37,2013-07-10 14:36:00,
2013-07-10 09:37:00,73.9,51.8,28.73,NW,315,7.8,10.4,46,0.00,CLR,,0.00,WeatherDisplay:10.37,2013-07-10 14:37:00,
2013-07-10 09:38:00,73.9,51.8,28.73,North,0,7.8,10.4,46,0.00,CLR,,0.00,WeatherDisplay:10.37,2013-07-10 14:38:00,
2013-07-10 09:39:00,73.9,51.8,28.73,NW,315,9.0,11.5,46,0.00,CLR,,0.00,WeatherDisplay:10.37,2013-07-10 14:39:00,
2013-07-10 09:40:00,73.6,50.9,28.73,NW,315,11.2,18.4,45,0.00,CLR,,0.00,WeatherDisplay:10.37,2013-07-10 14:40:00,
2013-07-10 09:41:00,73.6,50.9,28.73,NW,315,11.8,16.1,45,0.00,CLR,,0.00,WeatherDisplay:10.37,2013-07-10 14:41:00,
2013-07-10 09:43:00,72.1,49.6,28.73,West,270,10.5,13.8,45,0.00,CLR,,0.00,WeatherDisplay:10.37,2013-07-10 14:43:00,
2013-07-10 09:44:00,72.5,49.9,28.73,NW,315,9.0,12.7,45,0.00,CLR,,0.00,WeatherDisplay:10.37,2013-07-10 14:44:00,
2013-07-10 09:45:00,72.7,50.7,28.73,NW,315,6.7,11.5,46,0.00,CLR,,0.00,WeatherDisplay:10.37,2013-07-10 14:45:00,
2013-07-10 09:47:00,72.7,50.7,28.73,North,0,7.1,11.5,46,0.00,CLR,,0.00,WeatherDisplay:10.37,2013-07-10 14:47:00,
2013-07-10 09:48:00,72.9,52.0,28.73,North,0,7.1,15.0,48,0.00,CLR,,0.00,WeatherDisplay:10.37,2013-07-10 14:48:00,
2013-07-10 09:49:00,72.0,50.6,28.73,NNW,338,9.7,12.5,47,0.00,CLR,,0.00,WeatherDisplay:10.37,2013-07-10 14:49:00,
2013-07-10 09:50:00,73.4,52.5,28.73,North,0,6.4,12.7,48,0.00,CLR,,0.00,WeatherDisplay:10.37,2013-07-10 14:50:00,
2013-07-10 09:52:00,73.9,52.4,28.73,WNW,292,6.0,6.9,47,0.00,CLR,,0.00,WeatherDisplay:10.37,2013-07-10 14:52:00,
2013-07-10 09:53:00,73.9,52.4,28.73,WNW,292,5.9,6.9,47,0.00,CLR,,0.00,WeatherDisplay:10.37,2013-07-10 14:53:00,
2013-07-10 09:54:00,74.8,52.1,28.73,NNW,338,6.4,8.1,45,0.00,CLR,,0.00,WeatherDisplay:10.37,2013-07-10 14:54:00,
2013-07-10 09:56:00,74.8,51.5,28.73,WNW,292,5.6,5.8,44,0.00,CLR,,0.00,WeatherDisplay:10.37,2013-07-10 14:56:00,
2013-07-10 09:58:00,75.4,51.9,28.73,NW,315,6.4,9.8,44,0.00,CLR,,0.00,WeatherDisplay:10.37,2013-07-10 14:58:00,
2013-07-10 09:59:00,75.0,51.0,28.73,NW,315,6.4,10.7,43,0.00,CLR,,0.00,WeatherDisplay:10.37,2013-07-10 14:59:00,
2013-07-10 10:01:00,74.7,50.7,28.73,NW,315,6.7,12.5,43,0.00,CLR,,0.00,WeatherDisplay:10.37,2013-07-10 15:01:00,
2013-07-10 10:03:00,75.6,52.1,28.73,NW,315,4.7,12.7,44,0.00,CLR,,0.00,WeatherDisplay:10.37,2013-07-10 15:03:00,
2013-07-10 10:04:00,75.9,52.4,28.73,WNW,292,4.7,8.5,44,0.00,CLR,,0.00,WeatherDisplay:10.37,2013-07-10 15:04:00,
2013-07-10 10:06:00,75.6,50.9,28.73,NW,315,6.0,10.2,42,0.00,CLR,,0.00,WeatherDisplay:10.37,2013-07-10 15:06:00,
2013-07-10 10:08:00,74.8,50.2,28.73,North,0,11.2,18.4,42,0.00,CLR,,0.00,WeatherDisplay:10.37,2013-07-10 15:08:00,
2013-07-10 10:09:00,74.7,50.0,28.73,North,0,9.8,13.8,42,0.00,CLR,,0.00,WeatherDisplay:10.37,2013-07-10 15:09:00,
2013-07-10 10:10:00,74.7,50.1,28.73,NNW,340,10.0,18.0,42,0.00,CLR,,0.00,WeatherDisplay:10.37,2013-07-10 15:10:00,
2013-07-10 10:12:00,74.5,50.5,28.73,NW,315,9.2,10.4,43,0.00,CLR,,0.00,WeatherDisplay:10.37,2013-07-10 15:12:00,
2013-07-10 10:13:00,74.7,49.4,28.73,NW,315,6.7,12.1,41,0.00,CLR,,0.00,WeatherDisplay:10.37,2013-07-10 15:13:00,
2013-07-10 10:15:00,74.7,49.4,28.73,NNW,330,9.0,13.0,41,0.00,CLR,,0.00,WeatherDisplay:10.37,2013-07-10 15:15:00,
2013-07-10 10:17:00,74.7,50.0,28.73,West,270,8.5,12.7,42,0.00,CLR,,0.00,WeatherDisplay:10.37,2013-07-10 15:17:00,
2013-07-10 10:18:00,74.8,50.2,28.73,NW,315,7.8,10.4,42,0.00,CLR,,0.00,WeatherDisplay:10.37,2013-07-10 15:18:00,
2013-07-10 10:19:00,75.0,50.4,28.73,WNW,292,6.9,10.4,42,0.00,CLR,,0.00,WeatherDisplay:10.37,2013-07-10 15:19:00,
2013-07-10 10:20:00,75.2,49.9,28.73,NNW,338,6.9,11.5,41,0.00,CLR,,0.00,WeatherDisplay:10.37,2013-07-10 15:20:00,
2013-07-10 10:22:00,75.9,50.5,28.73,West,270,7.8,10.4,41,0.00,CLR,,0.00,WeatherDisplay:10.37,2013-07-10 15:22:00,
2013-07-10 10:24:00,75.2,49.9,28.73,North,0,9.7,10.4,41,0.00,CLR,,0.00,WeatherDisplay:10.37,2013-07-10 15:24:00,
2013-07-10 10:25:00,75.7,51.0,28.70,NNW,338,6.7,8.1,42,0.00,CLR,,0.00,WeatherDisplay:10.37,2013-07-10 15:25:00,
2013-07-10 10:27:00,75.2,49.2,28.70,NNW,338,10.0,13.8,40,0.00,CLR,,0.00,WeatherDisplay:10.37,2013-07-10 15:27:00,
2013-07-10 10:29:00,75.7,50.4,28.70,North,0,6.2,13.8,41,0.00,CLR,,0.00,WeatherDisplay:10.37,2013-07-10 15:29:00,
2013-07-10 10:30:00,75.7,50.4,28.70,North,0,6.2,10.5,41,0.00,CLR,,0.00,WeatherDisplay:10.37,2013-07-10 15:30:00,
2013-07-10 10:32:00,75.7,49.7,28.70,NNW,338,6.0,10.4,40,0.00,CLR,,0.00,WeatherDisplay:10.37,2013-07-10 15:32:00,
2013-07-10 10:34:00,76.3,50.8,28.70,North,0,6.9,10.4,41,0.00,CLR,,0.00,WeatherDisplay:10.37,2013-07-10 15:34:00,
2013-07-10 10:35:00,76.8,52.0,28.70,NNW,338,6.9,8.1,42,0.00,CLR,,0.00,WeatherDisplay:10.37,2013-07-10 15:35:00,
2013-07-10 10:36:00,76.6,51.2,28.70,NNW,338,8.5,10.5,41,0.00,CLR,,0.00,WeatherDisplay:10.37,2013-07-10 15:36:00,
2013-07-10 10:37:00,76.3,50.8,28.70,NW,315,8.1,11.5,41,0.00,CLR,,0.00,WeatherDisplay:10.37,2013-07-10 15:37:00,
2013-07-10 10:39:00,76.5,51.0,28.70,NNW,338,8.7,11.5,41,0.00,CLR,,0.00,WeatherDisplay:10.37,2013-07-10 15:39:00,
2013-07-10 10:40:00,76.8,52.0,28.73,WSW,248,4.5,11.5,42,0.00,CLR,,0.00,WeatherDisplay:10.37,2013-07-10 15:40:00,
2013-07-10 10:41:00,76.8,52.0,28.73,NNE,22,4.5,6.9,42,0.00,CLR,,0.00,WeatherDisplay:10.37,2013-07-10 15:41:00,
2013-07-10 10:42:00,77.2,51.7,28.73,NW,315,6.0,6.9,41,0.00,CLR,,0.00,WeatherDisplay:10.37,2013-07-10 15:42:00,
2013-07-10 10:44:00,77.2,51.0,28.73,NW,315,6.4,9.2,40,0.00,CLR,,0.00,WeatherDisplay:10.37,2013-07-10 15:44:00,
2013-07-10 10:45:00,77.2,51.0,28.73,North,0,7.8,11.5,40,0.00,CLR,,0.00,WeatherDisplay:10.37,2013-07-10 15:45:00,
2013-07-10 10:46:00,76.5,49.7,28.73,NNW,338,8.1,11.5,39,0.00,CLR,,0.00,WeatherDisplay:10.37,2013-07-10 15:46:00,
2013-07-10 10:48:00,76.5,49.7,28.73,WNW,292,9.0,9.0,39,0.00,CLR,,0.00,WeatherDisplay:10.37,2013-07-10 15:48:00,
2013-07-10 10:49:00,77.7,52.1,28.73,North,0,2.4,7.8,41,0.00,CLR,,0.00,WeatherDisplay:10.37,2013-07-10 15:49:00,
2013-07-10 10:50:00,77.7,50.1,28.73,NNW,338,6.2,10.4,38,0.00,CLR,,0.00,WeatherDisplay:10.37,2013-07-10 15:50:00,
2013-07-10 10:51:00,77.2,48.9,28.73,NNE,22,7.8,10.4,37,0.00,CLR,,0.00,WeatherDisplay:10.37,2013-07-10 15:51:00,
2013-07-10 10:53:00,77.4,49.0,28.73,ESE,112,6.2,8.1,37,0.00,CLR,,0.00,WeatherDisplay:10.37,2013-07-10 15:53:00,
2013-07-10 10:55:00,77.4,49.8,28.73,NE,45,6.7,8.1,38,0.00,CLR,,0.00,WeatherDisplay:10.37,2013-07-10 15:55:00,
2013-07-10 10:56:00,77.5,49.9,28.73,WNW,292,3.8,8.1,38,0.00,CLR,,0.00,WeatherDisplay:10.37,2013-07-10 15:56:00,
2013-07-10 10:58:00,77.5,50.6,28.73,North,0,5.6,9.8,39,0.00,CLR,,0.00,WeatherDisplay:10.37,2013-07-10 15:58:00,
2013-07-10 11:00:00,77.4,49.8,28.73,NNW,338,5.6,8.1,38,0.00,CLR,,0.00,WeatherDisplay:10.37,2013-07-10 16:00:00,
2013-07-10 11:01:00,77.7,51.5,28.73,North,0,4.5,8.1,40,0.00,CLR,,0.00,WeatherDisplay:10.37,2013-07-10 16:01:00,
2013-07-10 11:03:00,77.5,49.9,28.73,NW,315,7.1,9.8,38,0.00,CLR,,0.00,WeatherDisplay:10.37,2013-07-10 16:03:00,
2013-07-10 11:05:00,77.2,49.6,28.73,North,0,8.5,10.4,38,0.00,CLR,,0.00,WeatherDisplay:10.37,2013-07-10 16:05:00,
2013-07-10 11:06:00,76.8,47.8,28.73,WNW,292,9.2,12.7,36,0.00,CLR,,0.00,WeatherDisplay:10.37,2013-07-10 16:06:00,
2013-07-10 11:07:00,76.8,47.8,28.73,NW,315,9.2,12.7,36,0.00,CLR,,0.00,WeatherDisplay:10.37,2013-07-10 16:07:00,
2013-07-10 11:08:00,77.4,49.8,28.73,WNW,292,5.4,12.7,38,0.00,CLR,,0.00,WeatherDisplay:10.37,2013-07-10 16:08:00,
2013-07-10 11:10:00,77.7,49.4,28.76,NNW,338,3.3,10.4,37,0.00,CLR,,0.00,WeatherDisplay:10.37,2013-07-10 16:10:00,
2013-07-10 11:11:00,77.7,49.4,28.76,NNW,338,3.3,9.2,37,0.00,CLR,,0.00,WeatherDisplay:10.37,2013-07-10 16:11:00,
2013-07-10 11:12:00,77.4,48.3,28.76,NE,45,7.1,10.4,36,0.00,CLR,,0.00,WeatherDisplay:10.37,2013-07-10 16:12:00,
2013-07-10 11:13:00,77.0,48.0,28.76,NW,315,7.6,10.4,36,0.00,CLR,,0.00,WeatherDisplay:10.37,2013-07-10 16:13:00,
2013-07-10 11:15:00,76.8,47.8,28.76,NW,315,7.8,10.4,36,0.00,CLR,,0.00,WeatherDisplay:10.37,2013-07-10 16:15:00,
2013-07-10 11:16:00,76.8,47.8,28.76,NW,315,8.5,10.5,36,0.00,CLR,,0.00,WeatherDisplay:10.37,2013-07-10 16:16:00,
2013-07-10 11:17:00,76.8,47.8,28.76,NW,315,8.5,10.5,36,0.00,CLR,,0.00,WeatherDisplay:10.37,2013-07-10 16:17:00,
2013-07-10 11:18:00,77.0,49.4,28.76,NW,315,6.4,12.7,38,0.00,CLR,,0.00,WeatherDisplay:10.37,2013-07-10 16:18:00,
2013-07-10 11:21:00,76.8,47.8,28.76,NW,315,7.6,11.2,36,0.00,CLR,,0.00,WeatherDisplay:10.37,2013-07-10 16:21:00,
2013-07-10 11:22:00,77.0,48.0,28.76,North,0,7.1,11.5,36,0.00,CLR,,0.00,WeatherDisplay:10.37,2013-07-10 16:22:00,
2013-07-10 11:24:00,77.0,48.7,28.76,NNW,338,6.9,8.1,37,0.00,CLR,,0.00,WeatherDisplay:10.37,2013-07-10 16:24:00,
2013-07-10 11:26:00,78.1,49.7,28.76,NNE,22,4.0,5.8,37,0.00,CLR,,0.00,WeatherDisplay:10.37,2013-07-10 16:26:00,
2013-07-10 11:27:00,78.1,49.7,28.76,North,0,4.0,5.8,37,0.00,CLR,,0.00,WeatherDisplay:10.37,2013-07-10 16:27:00,
2013-07-10 11:29:00,77.7,48.6,28.76,NW,315,7.4,10.4,36,0.00,CLR,,0.00,WeatherDisplay:10.37,2013-07-10 16:29:00,
2013-07-10 11:31:00,77.7,49.4,28.76,NNW,338,5.6,9.2,37,0.00,CLR,,0.00,WeatherDisplay:10.37,2013-07-10 16:31:00,
2013-07-10 11:32:00,77.7,48.6,28.76,North,0,6.0,7.8,36,0.00,CLR,,0.00,WeatherDisplay:10.37,2013-07-10 16:32:00,
2013-07-10 11:34:00,78.1,49.7,28.76,North,0,3.8,6.9,37,0.00,CLR,,0.00,WeatherDisplay:10.37,2013-07-10 16:34:00,
2013-07-10 11:37:00,79.2,49.9,28.76,North,0,4.0,5.8,36,0.00,CLR,,0.00,WeatherDisplay:10.37,2013-07-10 16:37:00,
2013-07-10 11:38:00,79.0,49.0,28.76,NNW,338,5.4,6.9,35,0.00,CLR,,0.00,WeatherDisplay:10.37,2013-07-10 16:38:00,
2013-07-10 11:40:00,78.4,47.7,28.73,NW,315,7.1,7.1,34,0.00,CLR,,0.00,WeatherDisplay:10.37,2013-07-10 16:40:00,
2013-07-10 11:42:00,78.8,48.8,28.73,NW,315,6.7,10.4,35,0.00,CLR,,0.00,WeatherDisplay:10.37,2013-07-10 16:42:00,
2013-07-10 11:43:00,78.8,48.8,28.73,North,0,6.7,10.4,35,0.00,CLR,,0.00,WeatherDisplay:10.37,2013-07-10 16:43:00,
2013-07-10 11:45:00,78.1,48.9,28.73,North,0,4.7,8.1,36,0.00,CLR,,0.00,WeatherDisplay:10.37,2013-07-10 16:45:00,
2013-07-10 11:47:00,78.1,48.2,28.73,North,0,6.4,10.4,35,0.00,CLR,,0.00,WeatherDisplay:10.37,2013-07-10 16:47:00,
2013-07-10 11:48:00,78.1,47.4,28.73,North,0,6.4,10.4,34,0.00,CLR,,0.00,WeatherDisplay:10.37,2013-07-10 16:48:00,
2013-07-10 11:50:00,77.5,46.9,28.73,North,0,9.8,15.0,34,0.00,CLR,,0.00,WeatherDisplay:10.37,2013-07-10 16:50:00,
2013-07-10 11:52:00,77.4,46.8,28.73,NW,315,8.7,9.2,34,0.00,CLR,,0.00,WeatherDisplay:10.37,2013-07-10 16:52:00,
2013-07-10 11:53:00,77.5,47.7,28.73,North,0,7.6,10.7,35,0.00,CLR,,0.00,WeatherDisplay:10.37,2013-07-10 16:53:00,
2013-07-10 11:56:00,77.5,47.7,28.73,NW,315,8.1,9.7,35,0.00,CLR,,0.00,WeatherDisplay:10.37,2013-07-10 16:56:00,
2013-07-10 11:58:00,77.4,46.8,28.73,NW,315,7.4,12.7,34,0.00,CLR,,0.00,WeatherDisplay:10.37,2013-07-10 16:58:00,
2013-07-10 12:01:00,77.2,46.6,28.73,NW,315,8.7,12.7,34,0.00,CLR,,0.00,WeatherDisplay:10.37,2013-07-10 17:01:00,
2013-07-10 12:03:00,76.8,47.1,28.73,NW,315,9.7,10.4,35,0.00,CLR,,0.00,WeatherDisplay:10.37,2013-07-10 17:03:00,
2013-07-10 12:04:00,76.8,47.1,28.73,North,0,9.2,15.9,35,0.00,CLR,,0.00,WeatherDisplay:10.37,2013-07-10 17:04:00,
2013-07-10 12:06:00,77.2,48.2,28.73,NW,315,6.9,10.4,36,0.00,CLR,,0.00,WeatherDisplay:10.37,2013-07-10 17:06:00,
2013-07-10 12:08:00,77.2,47.4,28.73,NW,315,7.6,10.4,35,0.00,CLR,,0.00,WeatherDisplay:10.37,2013-07-10 17:08:00,
2013-07-10 12:09:00,77.2,47.4,28.73,WNW,292,7.6,10.4,35,0.00,CLR,,0.00,WeatherDisplay:10.37,2013-07-10 17:09:00,
2013-07-10 12:11:00,77.7,47.9,28.73,North,0,6.2,12.7,35,0.00,CLR,,0.00,WeatherDisplay:10.37,2013-07-10 17:11:00,
2013-07-10 12:13:00,77.4,49.8,28.73,NNW,338,6.4,8.1,38,0.00,CLR,,0.00,WeatherDisplay:10.37,2013-07-10 17:13:00,
2013-07-10 12:14:00,77.5,48.5,28.73,WNW,292,6.7,8.1,36,0.00,CLR,,0.00,WeatherDisplay:10.37,2013-07-10 17:14:00,
2013-07-10 12:16:00,78.6,50.2,28.73,NW,315,4.9,8.1,37,0.00,CLR,,0.00,WeatherDisplay:10.37,2013-07-10 17:16:00,
2013-07-10 12:18:00,78.8,49.6,28.73,NW,315,5.9,8.1,36,0.00,CLR,,0.00,WeatherDisplay:10.37,2013-07-10 17:18:00,
2013-07-10 12:19:00,78.4,50.0,28.73,NNW,338,4.0,7.6,37,0.00,CLR,,0.00,WeatherDisplay:10.37,2013-07-10 17:19:00,
2013-07-10 12:22:00,77.5,49.2,28.73,North,0,6.7,10.4,37,0.00,CLR,,0.00,WeatherDisplay:10.37,2013-07-10 17:22:00,
2013-07-10 12:23:00,77.4,47.6,28.73,WNW,292,9.0,12.7,35,0.00,CLR,,0.00,WeatherDisplay:10.37,2013-07-10 17:23:00,
2013-07-10 12:24:00,77.4,47.6,28.73,NNE,22,7.1,12.7,35,0.00,CLR,,0.00,WeatherDisplay:10.37,2013-07-10 17:24:00,
2013-07-10 12:25:00,76.8,47.8,28.73,West,270,8.7,10.4,36,0.00,CLR,,0.00,WeatherDisplay:10.37,2013-07-10 17:25:00,
2013-07-10 12:27:00,76.8,47.8,28.73,NNW,338,7.1,11.5,36,0.00,CLR,,0.00,WeatherDisplay:10.37,2013-07-10 17:27:00,
2013-07-10 12:28:00,77.5,48.5,28.73,NNE,22,7.4,7.4,36,0.00,CLR,,0.00,WeatherDisplay:10.37,2013-07-10 17:28:00,
2013-07-10 12:30:00,77.4,49.0,28.73,NW,315,7.1,10.4,37,0.00,CLR,,0.00,WeatherDisplay:10.37,2013-07-10 17:30:00,
2013-07-10 12:32:00,78.1,50.4,28.73,North,0,6.2,8.1,38,0.00,CLR,,0.00,WeatherDisplay:10.37,2013-07-10 17:32:00,
2013-07-10 12:33:00,78.3,49.8,28.73,NNW,338,5.6,8.1,37,0.00,CLR,,0.00,WeatherDisplay:10.37,2013-07-10 17:33:00,
2013-07-10 12:35:00,78.4,50.7,28.73,NW,315,5.6,8.1,38,0.00,CLR,,0.00,WeatherDisplay:10.37,2013-07-10 17:35:00,
2013-07-10 12:37:00,78.3,49.1,28.73,NW,315,7.6,8.1,36,0.00,CLR,,0.00,WeatherDisplay:10.37,2013-07-10 17:37:00,
2013-07-10 12:38:00,77.5,47.7,28.73,NNW,338,6.0,11.5,35,0.00,CLR,,0.00,WeatherDisplay:10.37,2013-07-10 17:38:00,
2013-07-10 12:40:00,77.5,48.5,28.73,NNE,22,7.1,8.1,36,0.00,CLR,,0.00,WeatherDisplay:10.37,2013-07-10 17:40:00,
2013-07-10 12:41:00,77.5,49.2,28.73,North,0,7.1,8.1,37,0.00,CLR,,0.00,WeatherDisplay:10.37,2013-07-10 17:41:00,
2013-07-10 12:43:00,77.5,48.5,28.73,NNE,22,8.7,9.2,36,0.00,CLR,,0.00,WeatherDisplay:10.37,2013-07-10 17:43:00,
2013-07-10 12:44:00,78.4,49.3,28.73,WNW,292,5.6,10.7,36,0.00,CLR,,0.00,WeatherDisplay:10.37,2013-07-10 17:44:00,
2013-07-10 12:45:00,78.3,48.4,28.73,NW,315,5.6,10.4,35,0.00,CLR,,0.00,WeatherDisplay:10.37,2013-07-10 17:45:00,
2013-07-10 12:46:00,78.1,47.4,28.73,North,0,8.5,10.5,34,0.00,CLR,,0.00,WeatherDisplay:10.37,2013-07-10 17:46:00,
2013-07-10 12:48:00,78.1,47.4,28.73,NNW,338,7.8,7.8,34,0.00,CLR,,0.00,WeatherDisplay:10.37,2013-07-10 17:48:00,
2013-07-10 12:49:00,78.8,50.3,28.73,WNW,292,4.7,8.1,37,0.00,CLR,,0.00,WeatherDisplay:10.37,2013-07-10 17:49:00,
2013-07-10 12:50:00,77.9,47.3,28.73,NW,315,9.7,9.7,34,0.00,CLR,,0.00,WeatherDisplay:10.37,2013-07-10 17:50:00,
2013-07-10 12:51:00,77.7,47.9,28.73,North,0,8.1,10.4,35,0.00,CLR,,0.00,WeatherDisplay:10.37,2013-07-10 17:51:00,
2013-07-10 12:53:00,77.5,46.9,28.73,NW,315,9.0,15.0,34,0.00,CLR,,0.00,WeatherDisplay:10.37,2013-07-10 17:53:00,
2013-07-10 12:54:00,77.5,46.9,28.73,North,0,9.2,13.8,34,0.00,CLR,,0.00,WeatherDisplay:10.37,2013-07-10 17:54:00,
2013-07-10 12:55:00,78.1,48.2,28.73,NNW,338,9.2,9.2,35,0.00,CLR,,0.00,WeatherDisplay:10.37,2013-07-10 17:55:00,
2013-07-10 12:57:00,78.1,48.2,28.73,North,0,6.9,11.5,35,0.00,CLR,,0.00,WeatherDisplay:10.37,2013-07-10 17:57:00,
2013-07-10 12:58:00,77.7,48.6,28.73,North,0,10.9,13.8,36,0.00,CLR,,0.00,WeatherDisplay:10.37,2013-07-10 17:58:00,
2013-07-10 12:59:00,77.7,48.6,28.73,NNW,338,5.4,9.2,36,0.00,CLR,,0.00,WeatherDisplay:10.37,2013-07-10 17:59:00,
2013-07-10 13:00:00,77.5,48.5,28.73,NW,315,6.2,11.2,36,0.00,CLR,,0.00,WeatherDisplay:10.37,2013-07-10 18:00:00,
2013-07-10 13:01:00,77.5,48.5,28.73,North,0,6.2,10.5,36,0.00,CLR,,0.00,WeatherDisplay:10.37,2013-07-10 18:01:00,
2013-07-10 13:02:00,77.5,48.5,28.73,North,0,9.0,11.5,36,0.00,CLR,,0.00,WeatherDisplay:10.37,2013-07-10 18:02:00,
2013-07-10 13:03:00,77.5,48.5,28.73,NNW,338,6.2,6.2,36,0.00,CLR,,0.00,WeatherDisplay:10.37,2013-07-10 18:03:00,
2013-07-10 13:05:00,79.0,50.5,28.73,NW,315,5.6,5.8,37,0.00,CLR,,0.00,WeatherDisplay:10.37,2013-07-10 18:05:00,
2013-07-10 13:06:00,79.0,50.5,28.73,WNW,292,6.4,6.9,37,0.00,CLR,,0.00,WeatherDisplay:10.37,2013-07-10 18:06:00,
2013-07-10 13:07:00,78.8,51.0,28.73,NNW,338,6.2,6.9,38,0.00,CLR,,0.00,WeatherDisplay:10.37,2013-07-10 18:07:00,
2013-07-10 13:08:00,78.8,51.0,28.73,NW,315,5.9,5.9,38,0.00,CLR,,0.00,WeatherDisplay:10.37,2013-07-10 18:08:00,
2013-07-10 13:11:00,79.0,49.7,28.76,NW,315,5.9,5.9,36,0.00,CLR,,0.00,WeatherDisplay:10.37,2013-07-10 18:11:00,
2013-07-10 13:12:00,79.3,49.3,28.76,NNW,338,4.0,10.4,35,0.00,CLR,,0.00,WeatherDisplay:10.37,2013-07-10 18:12:00,
2013-07-10 13:13:00,78.8,48.8,28.76,NW,315,7.4,8.1,35,0.00,CLR,,0.00,WeatherDisplay:10.37,2013-07-10 18:13:00,
2013-07-10 13:16:00,78.3,47.6,28.76,North,0,7.8,8.1,34,0.00,CLR,,0.00,WeatherDisplay:10.37,2013-07-10 18:16:00,
2013-07-10 13:17:00,78.3,48.4,28.76,North,0,6.0,6.9,35,0.00,CLR,,0.00,WeatherDisplay:10.37,2013-07-10 18:17:00,
2013-07-10 13:18:00,79.5,49.5,28.76,North,0,3.6,5.8,35,0.00,CLR,,0.00,WeatherDisplay:10.37,2013-07-10 18:18:00,
2013-07-10 13:21:00,79.9,51.3,28.76,West,270,3.8,6.9,37,0.00,CLR,,0.00,WeatherDisplay:10.37,2013-07-10 18:21:00,
2013-07-10 13:22:00,79.7,49.6,28.76,NW,315,3.8,8.1,35,0.00,CLR,,0.00,WeatherDisplay:10.37,2013-07-10 18:22:00,
2013-07-10 13:23:00,79.5,48.7,28.76,West,270,7.1,11.5,34,0.00,CLR,,0.00,WeatherDisplay:10.37,2013-07-10 18:23:00,
2013-07-10 13:26:00,79.7,48.0,28.73,NW,315,4.0,6.9,33,0.00,CLR,,0.00,WeatherDisplay:10.37,2013-07-10 18:26:00,
2013-07-10 13:27:00,79.9,49.0,28.73,North,0,5.9,6.9,34,0.00,CLR,,0.00,WeatherDisplay:10.37,2013-07-10 18:27:00,
2013-07-10 13:28:00,79.3,48.5,28.73,NW,315,8.5,10.7,34,0.00,CLR,,0.00,WeatherDisplay:10.37,2013-07-10 18:28:00,
2013-07-10 13:29:00,79.5,47.9,28.73,North,0,8.5,10.4,33,0.00,CLR,,0.00,WeatherDisplay:10.37,2013-07-10 18:29:00,
2013-07-10 13:31:00,79.7,48.0,28.73,NNW,338,4.3,8.1,33,0.00,CLR,,0.00,WeatherDisplay:10.37,2013-07-10 18:31:00,
2013-07-10 13:32:00,80.1,49.2,28.73,WNW,292,5.9,10.0,34,0.00,CLR,,0.00,WeatherDisplay:10.37,2013-07-10 18:32:00,
2013-07-10 13:33:00,79.2,46.8,28.73,NNW,338,8.5,10.4,32,0.00,CLR,,0.00,WeatherDisplay:10.37,2013-07-10 18:33:00,
2013-07-10 13:34:00,79.2,46.8,28.73,NNW,338,8.5,8.5,32,0.00,CLR,,0.00,WeatherDisplay:10.37,2013-07-10 18:34:00,
2013-07-10 13:36:00,79.3,47.7,28.73,North,0,7.4,9.2,33,0.00,CLR,,0.00,WeatherDisplay:10.37,2013-07-10 18:36:00,
2013-07-10 13:37:00,79.5,47.9,28.73,NNW,338,4.9,10.7,33,0.00,CLR,,0.00,WeatherDisplay:10.37,2013-07-10 18:37:00,
2013-07-10 13:38:00,79.3,46.9,28.73,WNW,292,9.4,15.0,32,0.00,CLR,,0.00,WeatherDisplay:10.37,2013-07-10 18:38:00,
2013-07-10 13:40:00,79.7,48.0,28.76,NW,315,4.0,11.5,33,0.00,CLR,,0.00,WeatherDisplay:10.37,2013-07-10 18:40:00,
2013-07-10 13:42:00,79.7,48.0,28.76,North,0,6.9,8.1,33,0.00,CLR,,0.00,WeatherDisplay:10.37,2013-07-10 18:42:00,
2013-07-10 13:43:00,79.9,48.2,28.76,NW,315,5.6,7.6,33,0.00,CLR,,0.00,WeatherDisplay:10.37,2013-07-10 18:43:00,
2013-07-10 13:45:00,79.6,47.1,28.76,NNW,329,7.0,9.0,32,0.00,CLR,,0.00,WeatherDisplay:10.37,2013-07-10 18:45:00,
2013-07-10 13:47:00,80.6,48.0,28.76,West,270,3.3,6.9,32,0.00,CLR,,0.00,WeatherDisplay:10.37,2013-07-10 18:47:00,
2013-07-10 13:48:00,80.4,47.9,28.76,NNE,22,5.6,5.9,32,0.00,CLR,,0.00,WeatherDisplay:10.37,2013-07-10 18:48:00,
2013-07-10 13:50:00,80.6,48.8,28.76,North,0,5.9,6.9,33,0.00,CLR,,0.00,WeatherDisplay:10.37,2013-07-10 18:50:00,
2013-07-10 13:52:00,81.0,48.3,28.76,NW,315,5.6,5.8,32,0.00,CLR,,0.00,WeatherDisplay:10.37,2013-07-10 18:52:00,
2013-07-10 13:53:00,81.0,48.3,28.76,NNW,338,4.9,8.1,32,0.00,CLR,,0.00,WeatherDisplay:10.37,2013-07-10 18:53:00,
2013-07-10 13:55:00,80.1,47.5,28.76,NW,315,6.0,8.1,32,0.00,CLR,,0.00,WeatherDisplay:10.37,2013-07-10 18:55:00,
2013-07-10 13:57:00,80.1,47.5,28.76,NW,315,6.9,6.9,32,0.00,CLR,,0.00,WeatherDisplay:10.37,2013-07-10 18:57:00,
2013-07-10 13:58:00,80.8,48.2,28.76,WNW,292,4.7,6.0,32,0.00,CLR,,0.00,WeatherDisplay:10.37,2013-07-10 18:58:00,
2013-07-10 13:59:00,80.4,47.9,28.76,NW,315,6.2,8.1,32,0.00,CLR,,0.00,WeatherDisplay:10.37,2013-07-10 18:59:00,
2013-07-10 14:00:00,79.5,47.1,28.76,North,0,6.2,9.2,32,0.00,CLR,,0.00,WeatherDisplay:10.37,2013-07-10 19:00:00,
2013-07-10 14:02:00,78.8,46.4,28.76,NNW,338,9.2,10.5,32,0.00,CLR,,0.00,WeatherDisplay:10.37,2013-07-10 19:02:00,
2013-07-10 14:03:00,78.6,47.1,28.76,North,0,6.7,10.4,33,0.00,CLR,,0.00,WeatherDisplay:10.37,2013-07-10 19:03:00,
2013-07-10 14:04:00,78.6,47.1,28.76,North,0,4.0,8.1,33,0.00,CLR,,0.00,WeatherDisplay:10.37,2013-07-10 19:04:00,
2013-07-10 14:05:00,78.6,47.1,28.76,WSW,248,4.0,6.9,33,0.00,CLR,,0.00,WeatherDisplay:10.37,2013-07-10 19:05:00,
2013-07-10 14:07:00,78.6,47.1,28.76,NNW,338,6.9,8.1,33,0.00,CLR,,0.00,WeatherDisplay:10.37,2013-07-10 19:07:00,
2013-07-10 14:08:00,79.5,47.9,28.76,WNW,292,4.9,8.1,33,0.00,CLR,,0.00,WeatherDisplay:10.37,2013-07-10 19:08:00,
2013-07-10 14:09:00,79.5,47.9,28.76,NNW,338,4.9,6.9,33,0.00,CLR,,0.00,WeatherDisplay:10.37,2013-07-10 19:09:00,
2013-07-10 14:10:00,79.5,47.9,28.76,NW,315,4.9,8.1,33,0.00,CLR,,0.00,WeatherDisplay:10.37,2013-07-10 19:10:00,
2013-07-10 14:12:00,79.7,48.0,28.76,WNW,292,8.5,12.7,33,0.00,CLR,,0.00,WeatherDisplay:10.37,2013-07-10 19:12:00,
2013-07-10 14:13:00,80.4,49.5,28.76,WNW,292,8.5,12.7,34,0.00,CLR,,0.00,WeatherDisplay:10.37,2013-07-10 19:13:00,
2013-07-10 14:14:00,80.4,49.5,28.76,NW,315,6.9,6.9,34,0.00,CLR,,0.00,WeatherDisplay:10.37,2013-07-10 19:14:00,
2013-07-10 14:15:00,80.6,48.0,28.76,NW,315,6.9,6.9,32,0.00,CLR,,0.00,WeatherDisplay:10.37,2013-07-10 19:15:00,
2013-07-10 14:17:00,80.8,48.2,28.76,WNW,292,4.7,5.8,32,0.00,CLR,,0.00,WeatherDisplay:10.37,2013-07-10 19:17:00,
2013-07-10 14:18:00,80.6,47.2,28.76,WNW,292,5.4,5.9,31,0.00,CLR,,0.00,WeatherDisplay:10.37,2013-07-10 19:18:00,
2013-07-10 14:19:00,80.6,47.2,28.76,North,0,5.9,6.2,31,0.00,CLR,,0.00,WeatherDisplay:10.37,2013-07-10 19:19:00,
2013-07-10 14:20:00,80.1,47.5,28.76,NW,315,5.9,10.2,32,0.00,CLR,,0.00,WeatherDisplay:10.37,2013-07-10 19:20:00,
2013-07-10 14:23:00,80.4,47.9,28.76,WNW,292,4.9,10.4,32,0.00,CLR,,0.00,WeatherDisplay:10.37,2013-07-10 19:23:00,
2013-07-10 14:24:00,80.6,48.0,28.76,West,270,5.9,6.9,32,0.00,CLR,,0.00,WeatherDisplay:10.37,2013-07-10 19:24:00,
2013-07-10 14:25:00,80.6,48.0,28.76,SW,225,5.4,5.8,32,0.00,CLR,,0.00,WeatherDisplay:10.37,2013-07-10 19:25:00,
2013-07-10 14:28:00,82.0,49.3,28.76,NNW,338,2.2,5.8,32,0.00,CLR,,0.00,WeatherDisplay:10.37,2013-07-10 19:28:00,
2013-07-10 14:29:00,82.2,50.2,28.76,West,270,2.4,5.8,33,0.00,CLR,,0.00,WeatherDisplay:10.37,2013-07-10 19:29:00,
2013-07-10 14:31:00,82.4,48.7,28.76,NNW,338,4.3,4.6,31,0.00,CLR,,0.00,WeatherDisplay:10.37,2013-07-10 19:31:00,
2013-07-10 14:33:00,81.3,47.8,28.76,WNW,292,5.6,8.1,31,0.00,CLR,,0.00,WeatherDisplay:10.37,2013-07-10 19:33:00,
2013-07-10 14:34:00,81.1,47.6,28.76,NW,315,6.4,9.2,31,0.00,CLR,,0.00,WeatherDisplay:10.37,2013-07-10 19:34:00,
2013-07-10 14:36:00,80.2,46.9,28.76,NW,315,7.8,11.5,31,0.00,CLR,,0.00,WeatherDisplay:10.37,2013-07-10 19:36:00,
2013-07-10 14:38:00,80.4,47.9,28.76,WNW,292,7.1,8.1,32,0.00,CLR,,0.00,WeatherDisplay:10.37,2013-07-10 19:38:00,
2013-07-10 14:39:00,80.4,47.0,28.76,WNW,292,7.1,9.2,31,0.00,CLR,,0.00,WeatherDisplay:10.37,2013-07-10 19:39:00,
2013-07-10 14:40:00,80.4,47.0,28.76,NW,315,6.2,8.1,31,0.00,CLR,,0.00,WeatherDisplay:10.37,2013-07-10 19:40:00,
2013-07-10 14:42:00,81.0,47.5,28.76,WNW,292,4.5,8.1,31,0.00,CLR,,0.00,WeatherDisplay:10.37,2013-07-10 19:42:00,
2013-07-10 14:43:00,81.3,47.8,28.76,NW,315,4.5,5.8,31,0.00,CLR,,0.00,WeatherDisplay:10.37,2013-07-10 19:43:00,
2013-07-10 14:45:00,81.1,47.6,28.76,NW,315,6.0,8.1,31,0.00,CLR,,0.00,WeatherDisplay:10.37,2013-07-10 19:45:00,
2013-07-10 14:46:00,81.1,47.6,28.76,WNW,292,6.0,7.4,31,0.00,CLR,,0.00,WeatherDisplay:10.37,2013-07-10 19:46:00,
2013-07-10 14:47:00,80.8,47.3,28.76,NW,315,6.2,8.7,31,0.00,CLR,,0.00,WeatherDisplay:10.37,2013-07-10 19:47:00,
2013-07-10 14:48:00,80.4,47.0,28.76,NW,315,9.2,10.4,31,0.00,CLR,,0.00,WeatherDisplay:10.37,2013-07-10 19:48:00,
2013-07-10 14:50:00,80.6,47.2,28.76,WNW,292,6.0,9.2,31,0.00,CLR,,0.00,WeatherDisplay:10.37,2013-07-10 19:50:00,
2013-07-10 14:51:00,80.1,47.5,28.76,NW,315,7.6,9.2,32,0.00,CLR,,0.00,WeatherDisplay:10.37,2013-07-10 19:51:00,
2013-07-10 14:52:00,79.7,47.2,28.76,North,0,7.6,11.5,32,0.00,CLR,,0.00,WeatherDisplay:10.37,2013-07-10 19:52:00,
2013-07-10 14:54:00,79.7,47.2,28.76,NW,315,8.1,9.2,32,0.00,CLR,,0.00,WeatherDisplay:10.37,2013-07-10 19:54:00,
2013-07-10 14:55:00,79.7,47.2,28.76,North,0,6.4,10.4,32,0.00,CLR,,0.00,WeatherDisplay:10.37,2013-07-10 19:55:00,
2013-07-10 14:56:00,80.1,47.5,28.76,WSW,248,5.4,8.1,32,0.00,CLR,,0.00,WeatherDisplay:10.37,2013-07-10 19:56:00,
2013-07-10 14:57:00,80.2,47.7,28.76,NNW,338,6.0,6.9,32,0.00,CLR,,0.00,WeatherDisplay:10.37,2013-07-10 19:57:00,
2013-07-10 14:59:00,80.6,48.0,28.76,WNW,292,4.7,8.1,32,0.00,CLR,,0.00,WeatherDisplay:10.37,2013-07-10 19:59:00,
2013-07-10 15:00:00,81.0,48.3,28.76,SSE,158,4.0,6.9,32,0.00,CLR,,0.00,WeatherDisplay:10.37,2013-07-10 20:00:00,
2013-07-10 15:01:00,80.4,47.9,28.76,NW,315,5.9,5.9,32,0.00,CLR,,0.00,WeatherDisplay:10.37,2013-07-10 20:01:00,
2013-07-10 15:02:00,79.9,47.4,28.76,NNW,338,2.6,5.8,32,0.00,CLR,,0.00,WeatherDisplay:10.37,2013-07-10 20:02:00,
2013-07-10 15:04:00,79.7,46.4,28.76,NW,315,4.3,5.8,31,0.00,CLR,,0.00,WeatherDisplay:10.37,2013-07-10 20:04:00,
2013-07-10 15:06:00,79.5,47.9,28.76,NW,315,4.5,6.0,33,0.00,CLR,,0.00,WeatherDisplay:10.37,2013-07-10 20:06:00,
2013-07-10 15:07:00,79.3,47.7,28.76,North,0,4.5,6.0,33,0.00,CLR,,0.00,WeatherDisplay:10.37,2013-07-10 20:07:00,
2013-07-10 15:09:00,78.8,46.4,28.76,NW,315,6.9,9.2,32,0.00,CLR,,0.00,WeatherDisplay:10.37,2013-07-10 20:09:00,
2013-07-10 15:11:00,78.3,46.8,28.76,North,0,4.7,5.8,33,0.00,CLR,,0.00,WeatherDisplay:10.37,2013-07-10 20:11:00,
2013-07-10 15:12:00,78.6,47.1,28.76,NW,315,4.7,5.8,33,0.00,CLR,,0.00,WeatherDisplay:10.37,2013-07-10 20:12:00,
2013-07-10 15:14:00,79.7,48.8,28.76,NW,315,3.3,4.7,34,0.00,CLR,,0.00,WeatherDisplay:10.37,2013-07-10 20:14:00,
2013-07-10 15:16:00,80.8,49.0,28.76,North,0,3.3,5.8,33,0.00,CLR,,0.00,WeatherDisplay:10.37,2013-07-10 20:16:00,
2013-07-10 15:17:00,81.1,48.5,28.76,West,270,3.3,6.9,32,0.00,CLR,,0.00,WeatherDisplay:10.37,2013-07-10 20:17:00,
2013-07-10 15:19:00,81.1,47.6,28.76,WNW,292,6.7,9.2,31,0.00,CLR,,0.00,WeatherDisplay:10.37,2013-07-10 20:19:00,
2013-07-10 15:21:00,81.1,47.6,28.76,West,270,5.6,10.2,31,0.00,CLR,,0.00,WeatherDisplay:10.37,2013-07-10 20:21:00,
2013-07-10 15:22:00,81.3,47.8,28.76,WNW,292,4.5,10.4,31,0.00,CLR,,0.00,WeatherDisplay:10.37,2013-07-10 20:22:00,
2013-07-10 15:23:00,81.7,48.9,28.76,NNW,338,4.5,10.4,32,0.00,CLR,,0.00,WeatherDisplay:10.37,2013-07-10 20:23:00,
2013-07-10 15:24:00,81.5,47.9,28.76,WNW,292,4.0,10.2,31,0.00,CLR,,0.00,WeatherDisplay:10.37,2013-07-10 20:24:00,
2013-07-10 15:26:00,81.3,47.8,28.76,NNW,338,7.1,10.4,31,0.00,CLR,,0.00,WeatherDisplay:10.37,2013-07-10 20:26:00,
2013-07-10 15:27:00,81.3,47.8,28.76,WNW,292,7.4,10.4,31,0.00,CLR,,0.00,WeatherDisplay:10.37,2013-07-10 20:27:00,
2013-07-10 15:28:00,81.3,47.8,28.76,North,0,7.4,7.4,31,0.00,CLR,,0.00,WeatherDisplay:10.37,2013-07-10 20:28:00,
2013-07-10 15:30:00,81.9,48.3,28.76,West,270,4.0,8.1,31,0.00,CLR,,0.00,WeatherDisplay:10.37,2013-07-10 20:30:00,
2013-07-10 15:31:00,80.8,47.3,28.76,WNW,292,6.2,13.8,31,0.00,CLR,,0.00,WeatherDisplay:10.37,2013-07-10 20:31:00,
2013-07-10 15:32:00,80.8,47.3,28.76,WNW,292,6.2,6.2,31,0.00,CLR,,0.00,WeatherDisplay:10.37,2013-07-10 20:32:00,
2013-07-10 15:33:00,80.8,47.3,28.76,WNW,292,4.7,5.8,31,0.00,CLR,,0.00,WeatherDisplay:10.37,2013-07-10 20:33:00,
2013-07-10 15:35:00,80.6,47.2,28.76,NNW,338,7.6,9.2,31,0.00,CLR,,0.00,WeatherDisplay:10.37,2013-07-10 20:35:00,
2013-07-10 15:37:00,80.8,47.3,28.76,NW,315,4.7,10.4,31,0.00,CLR,,0.00,WeatherDisplay:10.37,2013-07-10 20:37:00,
2013-07-10 15:38:00,81.0,47.5,28.76,NW,315,4.7,6.9,31,0.00,CLR,,0.00,WeatherDisplay:10.37,2013-07-10 20:38:00,
2013-07-10 15:41:00,81.1,48.5,28.76,NW,315,3.8,5.8,32,0.00,CLR,,0.00,WeatherDisplay:10.37,2013-07-10 20:41:00,
2013-07-10 15:42:00,81.3,48.6,28.76,North,0,4.9,7.4,32,0.00,CLR,,0.00,WeatherDisplay:10.37,2013-07-10 20:42:00,
2013-07-10 15:43:00,81.3,48.6,28.76,NW,315,6.2,6.9,32,0.00,CLR,,0.00,WeatherDisplay:10.37,2013-07-10 20:43:00,
2013-07-10 15:46:00,80.8,47.3,28.76,NW,315,7.6,9.2,31,0.00,CLR,,0.00,WeatherDisplay:10.37,2013-07-10 20:46:00,
2013-07-10 15:47:00,81.0,47.5,28.76,North,0,6.7,8.1,31,0.00,CLR,,0.00,WeatherDisplay:10.37,2013-07-10 20:47:00,
2013-07-10 15:48:00,81.3,47.8,28.76,NNW,338,3.1,8.1,31,0.00,CLR,,0.00,WeatherDisplay:10.37,2013-07-10 20:48:00,
2013-07-10 15:51:00,81.5,48.8,28.76,NW,315,4.5,8.1,32,0.00,CLR,,0.00,WeatherDisplay:10.37,2013-07-10 20:51:00,
2013-07-10 15:52:00,81.3,48.6,28.76,West,270,4.3,8.1,32,0.00,CLR,,0.00,WeatherDisplay:10.37,2013-07-10 20:52:00,
2013-07-10 15:53:00,81.0,47.5,28.76,NW,315,4.3,8.1,31,0.00,CLR,,0.00,WeatherDisplay:10.37,2013-07-10 20:53:00,
2013-07-10 15:54:00,80.6,47.2,28.76,NNW,338,4.5,9.2,31,0.00,CLR,,0.00,WeatherDisplay:10.37,2013-07-10 20:54:00,
2013-07-10 15:56:00,80.8,48.2,28.76,WNW,292,3.8,7.4,32,0.00,CLR,,0.00,WeatherDisplay:10.37,2013-07-10 20:56:00,
2013-07-10 15:57:00,81.0,48.3,28.76,NW,315,5.6,8.1,32,0.00,CLR,,0.00,WeatherDisplay:10.37,2013-07-10 20:57:00,
2013-07-10 15:58:00,81.0,48.3,28.76,NNW,338,6.9,8.1,32,0.00,CLR,,0.00,WeatherDisplay:10.37,2013-07-10 20:58:00,
2013-07-10 15:59:00,80.8,47.3,28.76,NW,315,6.9,8.1,31,0.00,CLR,,0.00,WeatherDisplay:10.37,2013-07-10 20:59:00,
2013-07-10 16:01:00,80.8,47.3,28.76,West,270,5.4,9.2,31,0.00,CLR,,0.00,WeatherDisplay:10.37,2013-07-10 21:01:00,
2013-07-10 16:03:00,81.0,48.3,28.76,NW,315,4.0,6.9,32,0.00,CLR,,0.00,WeatherDisplay:10.37,2013-07-10 21:03:00,
2013-07-10 16:04:00,80.8,48.2,28.76,NNW,338,2.2,4.6,32,0.00,CLR,,0.00,WeatherDisplay:10.37,2013-07-10 21:04:00,
2013-07-10 16:06:00,79.7,47.2,28.76,North,0,4.3,6.9,32,0.00,CLR,,0.00,WeatherDisplay:10.37,2013-07-10 21:06:00,
2013-07-10 16:08:00,80.6,48.0,28.76,North,0,1.6,3.5,32,0.00,CLR,,0.00,WeatherDisplay:10.37,2013-07-10 21:08:00,
2013-07-10 16:09:00,80.6,48.0,28.76,WNW,292,5.6,9.2,32,0.00,CLR,,0.00,WeatherDisplay:10.37,2013-07-10 21:09:00,
2013-07-10 16:10:00,80.6,48.0,28.76,NW,315,5.6,9.2,32,0.00,CLR,,0.00,WeatherDisplay:10.37,2013-07-10 21:10:00,
2013-07-10 16:12:00,80.4,47.0,28.76,NNW,338,7.4,10.4,31,0.00,CLR,,0.00,WeatherDisplay:10.37,2013-07-10 21:12:00,
2013-07-10 16:13:00,80.2,46.9,28.76,West,270,7.4,8.1,31,0.00,CLR,,0.00,WeatherDisplay:10.37,2013-07-10 21:13:00,
2013-07-10 16:14:00,80.2,46.9,28.76,NW,315,6.4,7.6,31,0.00,CLR,,0.00,WeatherDisplay:10.37,2013-07-10 21:14:00,
2013-07-10 16:16:00,79.9,46.5,28.76,NW,315,4.5,5.8,31,0.00,CLR,,0.00,WeatherDisplay:10.37,2013-07-10 21:16:00,
2013-07-10 16:17:00,79.9,46.5,28.76,NW,315,4.9,6.9,31,0.00,CLR,,0.00,WeatherDisplay:10.37,2013-07-10 21:17:00,
2013-07-10 16:18:00,79.9,46.5,28.76,NW,315,6.7,9.2,31,0.00,CLR,,0.00,WeatherDisplay:10.37,2013-07-10 21:18:00,
2013-07-10 16:19:00,79.9,46.5,28.76,WNW,292,5.4,6.9,31,0.00,CLR,,0.00,WeatherDisplay:10.37,2013-07-10 21:19:00,
2013-07-10 16:21:00,80.8,47.3,28.76,WNW,292,3.8,4.6,31,0.00,CLR,,0.00,WeatherDisplay:10.37,2013-07-10 21:21:00,
2013-07-10 16:22:00,81.0,47.5,28.76,West,270,5.4,5.8,31,0.00,CLR,,0.00,WeatherDisplay:10.37,2013-07-10 21:22:00,
2013-07-10 16:23:00,81.3,48.6,28.76,West,270,4.0,6.4,32,0.00,CLR,,0.00,WeatherDisplay:10.37,2013-07-10 21:23:00,
2013-07-10 16:24:00,81.5,48.8,28.76,NNW,338,4.9,6.9,32,0.00,CLR,,0.00,WeatherDisplay:10.37,2013-07-10 21:24:00,
2013-07-10 16:26:00,81.9,48.3,28.76,NW,315,4.7,8.5,31,0.00,CLR,,0.00,WeatherDisplay:10.37,2013-07-10 21:26:00,
2013-07-10 16:27:00,81.9,48.3,28.76,SSW,202,6.2,10.4,31,0.00,CLR,,0.00,WeatherDisplay:10.37,2013-07-10 21:27:00,
2013-07-10 16:29:00,81.1,47.6,28.76,NNW,338,8.1,9.2,31,0.00,CLR,,0.00,WeatherDisplay:10.37,2013-07-10 21:29:00,
2013-07-10 16:30:00,81.3,47.8,28.76,NW,315,5.9,10.4,31,0.00,CLR,,0.00,WeatherDisplay:10.37,2013-07-10 21:30:00,
2013-07-10 16:31:00,81.1,47.6,28.76,NW,315,5.4,10.4,31,0.00,CLR,,0.00,WeatherDisplay:10.37,2013-07-10 21:31:00,
2013-07-10 16:32:00,80.8,47.3,28.76,NW,315,7.6,8.1,31,0.00,CLR,,0.00,WeatherDisplay:10.37,2013-07-10 21:32:00,
2013-07-10 16:34:00,80.8,48.2,28.76,NW,315,5.6,8.1,32,0.00,CLR,,0.00,WeatherDisplay:10.37,2013-07-10 21:34:00,
2013-07-10 16:35:00,80.8,48.2,28.76,NW,307,6.0,11.0,32,0.00,CLR,,0.00,WeatherDisplay:10.37,2013-07-10 21:35:00,
2013-07-10 16:36:00,80.2,46.9,28.76,North,0,6.7,9.2,31,0.00,CLR,,0.00,WeatherDisplay:10.37,2013-07-10 21:36:00,
2013-07-10 16:37:00,80.4,47.0,28.76,NW,315,5.6,8.1,31,0.00,CLR,,0.00,WeatherDisplay:10.37,2013-07-10 21:37:00,
2013-07-10 16:40:00,80.2,46.9,28.73,North,0,4.3,9.2,31,0.00,CLR,,0.00,WeatherDisplay:10.37,2013-07-10 21:40:00,
2013-07-10 16:41:00,80.2,46.9,28.73,NW,315,4.3,9.2,31,0.00,CLR,,0.00,WeatherDisplay:10.37,2013-07-10 21:41:00,
2013-07-10 16:42:00,80.4,47.9,28.73,North,0,4.7,5.8,32,0.00,CLR,,0.00,WeatherDisplay:10.37,2013-07-10 21:42:00,
2013-07-10 16:43:00,80.4,47.9,28.73,NW,315,4.5,9.2,32,0.00,CLR,,0.00,WeatherDisplay:10.37,2013-07-10 21:43:00,
2013-07-10 16:45:00,80.2,46.9,28.73,WNW,292,6.2,8.1,31,0.00,CLR,,0.00,WeatherDisplay:10.37,2013-07-10 21:45:00,
2013-07-10 16:46:00,80.2,46.9,28.73,North,0,6.2,8.5,31,0.00,CLR,,0.00,WeatherDisplay:10.37,2013-07-10 21:46:00,
2013-07-10 16:47:00,80.4,47.9,28.73,NW,315,4.7,8.1,32,0.00,CLR,,0.00,WeatherDisplay:10.37,2013-07-10 21:47:00,
2013-07-10 16:48:00,80.4,47.9,28.73,North,0,4.7,6.9,32,0.00,CLR,,0.00,WeatherDisplay:10.37,2013-07-10 21:48:00,
2013-07-10 16:50:00,80.2,46.9,28.73,NW,315,6.9,9.2,31,0.00,CLR,,0.00,WeatherDisplay:10.37,2013-07-10 21:50:00,
2013-07-10 16:51:00,80.6,47.2,28.73,NW,315,4.3,9.2,31,0.00,CLR,,0.00,WeatherDisplay:10.37,2013-07-10 21:51:00,
2013-07-10 16:52:00,80.6,47.2,28.73,NW,315,5.4,6.9,31,0.00,CLR,,0.00,WeatherDisplay:10.37,2013-07-10 21:52:00,
2013-07-10 16:53:00,81.0,47.5,28.73,NW,315,3.8,4.6,31,0.00,CLR,,0.00,WeatherDisplay:10.37,2013-07-10 21:53:00,
2013-07-10 16:56:00,81.7,48.1,28.76,West,270,4.0,4.6,31,0.00,CLR,,0.00,WeatherDisplay:10.37,2013-07-10 21:56:00,
2013-07-10 16:57:00,81.5,47.9,28.76,North,0,4.3,5.6,31,0.00,CLR,,0.00,WeatherDisplay:10.37,2013-07-10 21:57:00,
2013-07-10 16:58:00,81.5,47.9,28.76,North,0,5.9,6.9,31,0.00,CLR,,0.00,WeatherDisplay:10.37,2013-07-10 21:58:00,
2013-07-10 17:01:00,81.5,47.9,28.76,NW,315,4.5,5.8,31,0.00,CLR,,0.00,WeatherDisplay:10.37,2013-07-10 22:01:00,
2013-07-10 17:03:00,81.3,47.8,28.76,NW,315,5.4,7.1,31,0.00,CLR,,0.00,WeatherDisplay:10.37,2013-07-10 22:03:00,
2013-07-10 17:06:00,81.1,48.5,28.76,NW,315,5.6,8.1,32,0.00,CLR,,0.00,WeatherDisplay:10.37,2013-07-10 22:06:00,
2013-07-10 17:07:00,81.1,48.5,28.76,NW,315,5.6,8.1,32,0.00,CLR,,0.00,WeatherDisplay:10.37,2013-07-10 22:07:00,
2013-07-10 17:08:00,81.0,47.5,28.76,NNW,338,5.4,8.1,31,0.00,CLR,,0.00,WeatherDisplay:10.37,2013-07-10 22:08:00,
2013-07-10 17:11:00,80.6,47.2,28.73,West,270,6.2,8.1,31,0.00,CLR,,0.00,WeatherDisplay:10.37,2013-07-10 22:11:00,
2013-07-10 17:12:00,80.6,47.2,28.73,WNW,292,4.0,8.1,31,0.00,CLR,,0.00,WeatherDisplay:10.37,2013-07-10 22:12:00,
2013-07-10 17:13:00,80.8,47.3,28.73,West,270,4.0,5.8,31,0.00,CLR,,0.00,WeatherDisplay:10.37,2013-07-10 22:13:00,
2013-07-10 17:14:00,80.8,47.3,28.73,West,270,4.0,7.8,31,0.00,CLR,,0.00,WeatherDisplay:10.37,2013-07-10 22:14:00,
2013-07-10 17:16:00,80.8,47.3,28.73,WNW,292,5.6,14.7,31,0.00,CLR,,0.00,WeatherDisplay:10.37,2013-07-10 22:16:00,
2013-07-10 17:17:00,80.4,47.0,28.73,West,270,8.1,15.0,31,0.00,CLR,,0.00,WeatherDisplay:10.37,2013-07-10 22:17:00,
2013-07-10 17:18:00,80.4,47.9,28.73,NW,315,4.3,11.5,32,0.00,CLR,,0.00,WeatherDisplay:10.37,2013-07-10 22:18:00,
2013-07-10 17:19:00,80.4,47.9,28.73,NW,315,6.2,11.5,32,0.00,CLR,,0.00,WeatherDisplay:10.37,2013-07-10 22:19:00,
2013-07-10 17:22:00,80.1,47.5,28.73,NNW,338,5.9,6.9,32,0.00,CLR,,0.00,WeatherDisplay:10.37,2013-07-10 22:22:00,
2013-07-10 17:24:00,79.5,46.2,28.73,NW,315,6.7,9.2,31,0.00,CLR,,0.00,WeatherDisplay:10.37,2013-07-10 22:24:00,
2013-07-10 17:27:00,79.7,46.4,28.73,North,0,4.5,5.8,31,0.00,CLR,,0.00,WeatherDisplay:10.37,2013-07-10 22:27:00,
2013-07-10 17:29:00,79.7,47.2,28.73,WNW,292,4.5,6.9,32,0.00,CLR,,0.00,WeatherDisplay:10.37,2013-07-10 22:29:00,
2013-07-10 17:32:00,79.5,47.9,28.73,North,0,6.0,6.9,33,0.00,CLR,,0.00,WeatherDisplay:10.37,2013-07-10 22:32:00,
2013-07-10 17:34:00,79.0,46.6,28.73,NW,315,4.7,6.2,32,0.00,CLR,,0.00,WeatherDisplay:10.37,2013-07-10 22:34:00,
2013-07-10 17:37:00,79.0,47.4,28.73,West,270,4.0,5.8,33,0.00,CLR,,0.00,WeatherDisplay:10.37,2013-07-10 22:37:00,
2013-07-10 17:38:00,79.0,47.4,28.73,WNW,292,4.0,4.6,33,0.00,CLR,,0.00,WeatherDisplay:10.37,2013-07-10 22:38:00,
2013-07-10 17:39:00,78.8,47.3,28.73,North,0,5.9,6.2,33,0.00,CLR,,0.00,WeatherDisplay:10.37,2013-07-10 22:39:00,
2013-07-10 17:42:00,78.4,47.7,28.73,WNW,292,4.0,4.9,34,0.00,CLR,,0.00,WeatherDisplay:10.37,2013-07-10 22:42:00,
2013-07-10 17:43:00,78.4,47.7,28.73,NNW,338,4.5,5.4,34,0.00,CLR,,0.00,WeatherDisplay:10.37,2013-07-10 22:43:00,
2013-07-10 17:44:00,78.4,47.7,28.73,North,0,3.6,6.2,34,0.00,CLR,,0.00,WeatherDisplay:10.37,2013-07-10 22:44:00,
2013-07-10 17:48:00,78.3,47.6,28.73,NNW,338,4.3,5.8,34,0.00,CLR,,0.00,WeatherDisplay:10.37,2013-07-10 22:48:00,
2013-07-10 17:49:00,78.4,47.7,28.73,North,0,4.7,5.8,34,0.00,CLR,,0.00,WeatherDisplay:10.37,2013-07-10 22:49:00,
2013-07-10 17:50:00,78.4,47.7,28.73,NNW,330,5.0,7.0,34,0.00,CLR,,0.00,WeatherDisplay:10.37,2013-07-10 22:50:00,
2013-07-10 17:53:00,78.3,47.6,28.73,NW,315,4.9,9.8,34,0.00,CLR,,0.00,WeatherDisplay:10.37,2013-07-10 22:53:00,
2013-07-10 17:54:00,77.9,47.3,28.73,WNW,292,8.5,10.4,34,0.00,CLR,,0.00,WeatherDisplay:10.37,2013-07-10 22:54:00,
2013-07-10 17:55:00,77.9,47.3,28.73,NNW,330,8.0,10.0,34,0.00,CLR,,0.00,WeatherDisplay:10.37,2013-07-10 22:55:00,
2013-07-10 17:58:00,78.1,47.4,28.73,NW,315,4.0,5.9,34,0.00,CLR,,0.00,WeatherDisplay:10.37,2013-07-10 22:58:00,
2013-07-10 17:59:00,78.1,47.4,28.73,NW,315,2.9,6.0,34,0.00,CLR,,0.00,WeatherDisplay:10.37,2013-07-10 22:59:00,
2013-07-10 18:00:00,78.3,47.6,28.73,NNW,338,4.3,5.8,34,0.00,CLR,,0.00,WeatherDisplay:10.37,2013-07-10 23:00:00,
2013-07-10 18:03:00,78.3,47.6,28.73,North,0,5.6,6.9,34,0.00,CLR,,0.00,WeatherDisplay:10.37,2013-07-10 23:03:00,
2013-07-10 18:04:00,78.4,47.7,28.73,NNW,338,3.8,5.8,34,0.00,CLR,,0.00,WeatherDisplay:10.37,2013-07-10 23:04:00,
2013-07-10 18:05:00,78.4,47.7,28.73,NNW,334,3.0,7.0,34,0.00,CLR,,0.00,WeatherDisplay:10.37,2013-07-10 23:05:00,
2013-07-10 18:08:00,78.6,48.7,28.73,North,0,4.7,5.8,35,0.00,CLR,,0.00,WeatherDisplay:10.37,2013-07-10 23:08:00,
2013-07-10 18:09:00,78.4,47.7,28.76,NNW,338,5.6,8.1,34,0.00,CLR,,0.00,WeatherDisplay:10.37,2013-07-10 23:09:00,
2013-07-10 18:10:00,78.3,47.6,28.76,North,0,6.7,8.1,34,0.00,CLR,,0.00,WeatherDisplay:10.37,2013-07-10 23:10:00,
2013-07-10 18:13:00,77.7,47.1,28.76,North,0,6.7,9.7,34,0.00,CLR,,0.00,WeatherDisplay:10.37,2013-07-10 23:13:00,
2013-07-10 18:14:00,77.7,47.1,28.76,North,0,6.7,9.2,34,0.00,CLR,,0.00,WeatherDisplay:10.37,2013-07-10 23:14:00,
2013-07-10 18:15:00,77.7,47.1,28.76,North,0,3.6,4.6,34,0.00,CLR,,0.00,WeatherDisplay:10.37,2013-07-10 23:15:00,
2013-07-10 18:16:00,78.1,48.2,28.76,NNW,338,3.6,4.6,35,0.00,CLR,,0.00,WeatherDisplay:10.37,2013-07-10 23:16:00,
2013-07-10 18:19:00,77.9,47.3,28.76,North,0,5.6,8.1,34,0.00,CLR,,0.00,WeatherDisplay:10.37,2013-07-10 23:19:00,
2013-07-10 18:20:00,77.9,47.3,28.76,North,0,3.3,4.6,34,0.00,CLR,,0.00,WeatherDisplay:10.37,2013-07-10 23:20:00,
2013-07-10 18:21:00,77.9,47.3,28.76,North,0,3.3,5.4,34,0.00,CLR,,0.00,WeatherDisplay:10.37,2013-07-10 23:21:00,
2013-07-10 18:24:00,78.3,48.4,28.76,North,0,3.8,4.6,35,0.00,CLR,,0.00,WeatherDisplay:10.37,2013-07-10 23:24:00,
2013-07-10 18:25:00,78.1,48.2,28.73,North,0,3.8,5.8,35,0.00,CLR,,0.00,WeatherDisplay:10.37,2013-07-10 23:25:00,
2013-07-10 18:26:00,78.3,48.4,28.73,NW,315,3.8,5.8,35,0.00,CLR,,0.00,WeatherDisplay:10.37,2013-07-10 23:26:00,
2013-07-10 18:29:00,78.3,47.6,28.73,WNW,292,4.7,9.2,34,0.00,CLR,,0.00,WeatherDisplay:10.37,2013-07-10 23:29:00,
2013-07-10 18:31:00,78.1,47.4,28.73,NW,315,5.6,6.9,34,0.00,CLR,,0.00,WeatherDisplay:10.37,2013-07-10 23:31:00,
2013-07-10 18:34:00,77.7,47.1,28.73,NNW,338,6.0,6.9,34,0.00,CLR,,0.00,WeatherDisplay:10.37,2013-07-10 23:34:00,
2013-07-10 18:36:00,77.5,46.9,28.73,North,0,6.2,6.9,34,0.00,CLR,,0.00,WeatherDisplay:10.37,2013-07-10 23:36:00,
2013-07-10 18:39:00,77.4,46.8,28.73,NNW,338,4.0,5.8,34,0.00,CLR,,0.00,WeatherDisplay:10.37,2013-07-10 23:39:00,
2013-07-10 18:40:00,77.5,46.9,28.73,NNE,22,4.0,5.8,34,0.00,CLR,,0.00,WeatherDisplay:10.37,2013-07-10 23:40:00,
2013-07-10 18:41:00,77.5,47.7,28.73,NW,315,3.1,4.6,35,0.00,CLR,,0.00,WeatherDisplay:10.37,2013-07-10 23:41:00,
2013-07-10 18:44:00,77.5,46.9,28.73,NNW,338,3.6,3.6,34,0.00,CLR,,0.00,WeatherDisplay:10.37,2013-07-10 23:44:00,
2013-07-10 18:45:00,77.5,47.7,28.73,NW,315,4.3,4.7,35,0.00,CLR,,0.00,WeatherDisplay:10.37,2013-07-10 23:45:00,
2013-07-10 18:46:00,77.5,47.7,28.73,NW,315,4.5,5.6,35,0.00,CLR,,0.00,WeatherDisplay:10.37,2013-07-10 23:46:00,
2013-07-10 18:47:00,77.4,47.6,28.73,NW,315,4.5,4.9,35,0.00,CLR,,0.00,WeatherDisplay:10.37,2013-07-10 23:47:00,
2013-07-10 18:49:00,77.2,47.4,28.73,North,0,4.5,9.2,35,0.00,CLR,,0.00,WeatherDisplay:10.37,2013-07-10 23:49:00,
2013-07-10 18:50:00,77.4,47.6,28.73,NNW,338,3.8,5.8,35,0.00,CLR,,0.00,WeatherDisplay:10.37,2013-07-10 23:50:00,
2013-07-10 18:51:00,77.2,47.4,28.73,NNW,338,3.3,6.4,35,0.00,CLR,,0.00,WeatherDisplay:10.37,2013-07-10 23:51:00,
2013-07-10 18:52:00,77.2,47.4,28.73,NW,315,3.3,5.8,35,0.00,CLR,,0.00,WeatherDisplay:10.37,2013-07-10 23:52:00,
2013-07-10 18:54:00,77.4,47.6,28.73,NW,315,2.9,4.6,35,0.00,CLR,,0.00,WeatherDisplay:10.37,2013-07-10 23:54:00,
2013-07-10 18:55:00,77.4,47.6,28.73,North,0,3.8,4.6,35,0.00,CLR,,0.00,WeatherDisplay:10.37,2013-07-10 23:55:00,
2013-07-10 18:56:00,77.2,47.4,28.73,North,0,3.8,5.8,35,0.00,CLR,,0.00,WeatherDisplay:10.37,2013-07-10 23:56:00,
2013-07-10 18:57:00,77.2,47.4,28.73,NNW,338,3.6,4.6,35,0.00,CLR,,0.00,WeatherDisplay:10.37,2013-07-10 23:57:00,
2013-07-10 18:58:00,77.4,48.3,28.73,North,0,3.6,4.6,36,0.00,CLR,,0.00,WeatherDisplay:10.37,2013-07-10 23:58:00,
2013-07-10 19:00:00,77.3,48.2,28.73,NNW,333,5.0,6.0,36,0.00,CLR,,0.00,WeatherDisplay:10.37,2013-07-11 00:00:00,
2013-07-10 19:01:00,77.2,48.2,28.73,NW,315,3.8,5.8,36,0.00,CLR,,0.00,WeatherDisplay:10.37,2013-07-11 00:01:00,
2013-07-10 19:02:00,77.0,48.0,28.73,North,0,4.0,4.6,36,0.00,CLR,,0.00,WeatherDisplay:10.37,2013-07-11 00:02:00,
2013-07-10 19:03:00,77.0,48.0,28.73,WNW,292,3.6,5.8,36,0.00,CLR,,0.00,WeatherDisplay:10.37,2013-07-11 00:03:00,
2013-07-10 19:05:00,77.2,48.9,28.73,North,0,4.0,5.8,37,0.00,CLR,,0.00,WeatherDisplay:10.37,2013-07-11 00:05:00,
2013-07-10 19:07:00,77.0,48.0,28.73,NW,315,5.4,5.8,36,0.00,CLR,,0.00,WeatherDisplay:10.37,2013-07-11 00:07:00,
2013-07-10 19:09:00,77.0,48.0,28.73,North,0,2.9,5.9,36,0.00,CLR,,0.00,WeatherDisplay:10.37,2013-07-11 00:09:00,
2013-07-10 19:10:00,76.8,48.6,28.76,NW,315,4.3,5.8,37,0.00,CLR,,0.00,WeatherDisplay:10.37,2013-07-11 00:10:00,
2013-07-10 19:12:00,76.8,48.6,28.76,North,0,2.6,3.5,37,0.00,CLR,,0.00,WeatherDisplay:10.37,2013-07-11 00:12:00,
2013-07-10 19:14:00,76.8,48.6,28.76,NW,315,2.0,3.5,37,0.00,CLR,,0.00,WeatherDisplay:10.37,2013-07-11 00:14:00,
2013-07-10 19:15:00,76.8,49.3,28.76,North,0,2.9,3.5,38,0.00,CLR,,0.00,WeatherDisplay:10.37,2013-07-11 00:15:00,
2013-07-10 19:16:00,76.8,49.3,28.76,North,0,2.9,3.5,38,0.00,CLR,,0.00,WeatherDisplay:10.37,2013-07-11 00:16:00,
2013-07-10 19:17:00,76.8,49.3,28.76,NW,315,2.9,3.8,38,0.00,CLR,,0.00,WeatherDisplay:10.37,2013-07-11 00:17:00,
2013-07-10 19:19:00,76.6,49.1,28.76,NW,315,3.3,4.6,38,0.00,CLR,,0.00,WeatherDisplay:10.37,2013-07-11 00:19:00,
2013-07-10 19:21:00,76.6,49.8,28.76,NW,315,2.9,4.6,39,0.00,CLR,,0.00,WeatherDisplay:10.37,2013-07-11 00:21:00,
2013-07-10 19:22:00,76.5,49.7,28.76,NNW,338,3.3,3.5,39,0.00,CLR,,0.00,WeatherDisplay:10.37,2013-07-11 00:22:00,
2013-07-10 19:23:00,76.5,49.7,28.76,NW,315,3.3,3.3,39,0.00,CLR,,0.00,WeatherDisplay:10.37,2013-07-11 00:23:00,
2013-07-10 19:25:00,76.5,49.7,28.76,NW,318,3.0,5.0,39,0.00,CLR,,0.00,WeatherDisplay:10.37,2013-07-11 00:25:00,
2013-07-10 19:26:00,76.5,50.3,28.76,NW,315,2.6,3.5,40,0.00,CLR,,0.00,WeatherDisplay:10.37,2013-07-11 00:26:00,
2013-07-10 19:28:00,76.3,49.5,28.76,NW,315,3.8,5.8,39,0.00,CLR,,0.00,WeatherDisplay:10.37,2013-07-11 00:28:00,
2013-07-10 19:30:00,76.1,50.0,28.76,North,0,2.2,3.3,40,0.00,CLR,,0.00,WeatherDisplay:10.37,2013-07-11 00:30:00,
2013-07-10 19:31:00,75.9,49.9,28.76,North,0,3.1,3.8,40,0.00,CLR,,0.00,WeatherDisplay:10.37,2013-07-11 00:31:00,
2013-07-10 19:32:00,75.9,49.2,28.76,NNW,338,3.8,5.8,39,0.00,CLR,,0.00,WeatherDisplay:10.37,2013-07-11 00:32:00,
2013-07-10 19:33:00,75.9,49.2,28.76,NW,315,3.8,3.8,39,0.00,CLR,,0.00,WeatherDisplay:10.37,2013-07-11 00:33:00,
2013-07-10 19:35:00,75.7,49.7,28.76,NW,315,3.1,3.5,40,0.00,CLR,,0.00,WeatherDisplay:10.37,2013-07-11 00:35:00,
2013-07-10 19:37:00,75.6,49.5,28.76,NNW,338,2.6,3.5,40,0.00,CLR,,0.00,WeatherDisplay:10.37,2013-07-11 00:37:00,
2013-07-10 19:38:00,75.2,49.2,28.76,NNW,338,1.6,2.3,40,0.00,CLR,,0.00,WeatherDisplay:10.37,2013-07-11 00:38:00,
2013-07-10 19:39:00,75.2,49.2,28.76,NNW,338,2.6,2.9,40,0.00,CLR,,0.00,WeatherDisplay:10.37,2013-07-11 00:39:00,
2013-07-10 19:40:00,75.0,49.7,28.76,WNW,292,2.6,3.5,41,0.00,CLR,,0.00,WeatherDisplay:10.37,2013-07-11 00:40:00,
2013-07-10 19:42:00,74.8,49.6,28.76,North,0,2.9,3.5,41,0.00,CLR,,0.00,WeatherDisplay:10.37,2013-07-11 00:42:00,
2013-07-10 19:43:00,74.7,49.4,28.76,NW,315,2.2,3.3,41,0.00,CLR,,0.00,WeatherDisplay:10.37,2013-07-11 00:43:00,
2013-07-10 19:44:00,74.5,49.2,28.76,NW,315,3.1,4.6,41,0.00,CLR,,0.00,WeatherDisplay:10.37,2013-07-11 00:44:00,
2013-07-10 19:45:00,74.3,49.1,28.76,NW,315,3.1,4.6,41,0.00,CLR,,0.00,WeatherDisplay:10.37,2013-07-11 00:45:00,
2013-07-10 19:47:00,74.1,48.9,28.76,NNW,338,3.1,3.5,41,0.00,CLR,,0.00,WeatherDisplay:10.37,2013-07-11 00:47:00,
2013-07-10 19:49:00,73.9,49.4,28.76,NW,315,2.4,3.5,42,0.00,CLR,,0.00,WeatherDisplay:10.37,2013-07-11 00:49:00,
2013-07-10 19:50:00,73.8,49.2,28.76,NW,315,2.4,3.5,42,0.00,CLR,,0.00,WeatherDisplay:10.37,2013-07-11 00:50:00,
2013-07-10 19:52:00,73.6,49.1,28.76,NW,315,2.2,3.5,42,0.00,CLR,,0.00,WeatherDisplay:10.37,2013-07-11 00:52:00,
2013-07-10 19:54:00,73.4,48.9,28.76,NW,315,2.9,4.6,42,0.00,CLR,,0.00,WeatherDisplay:10.37,2013-07-11 00:54:00,
2013-07-10 19:55:00,73.2,49.4,28.76,West,270,2.6,2.6,43,0.00,CLR,,0.00,WeatherDisplay:10.37,2013-07-11 00:55:00,
2013-07-10 19:58:00,73.2,49.4,28.76,WNW,292,3.1,3.5,43,0.00,CLR,,0.00,WeatherDisplay:10.37,2013-07-11 00:58:00,
2013-07-10 19:59:00,73.0,49.2,28.76,NW,315,2.4,3.5,43,0.00,CLR,,0.00,WeatherDisplay:10.37,2013-07-11 00:59:00,
2013-07-10 20:00:00,72.9,49.7,28.76,NW,315,3.1,3.5,44,0.00,CLR,,0.00,WeatherDisplay:10.37,2013-07-11 01:00:00,
2013-07-10 20:03:00,72.7,49.5,28.76,North,0,3.6,4.6,44,0.00,CLR,,0.00,WeatherDisplay:10.37,2013-07-11 01:03:00,
2013-07-10 20:04:00,72.5,49.3,28.76,NNW,338,3.1,3.8,44,0.00,CLR,,0.00,WeatherDisplay:10.37,2013-07-11 01:04:00,
2013-07-10 20:05:00,72.5,49.3,28.76,NW,315,3.3,3.5,44,0.00,CLR,,0.00,WeatherDisplay:10.37,2013-07-11 01:05:00,
2013-07-10 20:06:00,72.5,49.9,28.76,NW,315,3.1,3.6,45,0.00,CLR,,0.00,WeatherDisplay:10.37,2013-07-11 01:06:00,
2013-07-10 20:08:00,72.3,49.8,28.76,NW,315,3.3,4.6,45,0.00,CLR,,0.00,WeatherDisplay:10.37,2013-07-11 01:08:00,
2013-07-10 20:09:00,72.1,49.6,28.76,NW,315,3.3,3.5,45,0.00,CLR,,0.00,WeatherDisplay:10.37,2013-07-11 01:09:00,
2013-07-10 20:10:00,72.1,49.6,28.76,North,0,2.9,3.5,45,0.00,CLR,,0.00,WeatherDisplay:10.37,2013-07-11 01:10:00,
2013-07-10 20:11:00,72.0,50.0,28.76,NNW,338,2.4,3.1,46,0.00,CLR,,0.00,WeatherDisplay:10.37,2013-07-11 01:11:00,
2013-07-10 20:13:00,72.0,50.0,28.76,NNW,338,2.6,3.6,46,0.00,CLR,,0.00,WeatherDisplay:10.37,2013-07-11 01:13:00,
2013-07-10 20:14:00,72.0,50.0,28.76,NW,315,2.6,3.5,46,0.00,CLR,,0.00,WeatherDisplay:10.37,2013-07-11 01:14:00,
2013-07-10 20:15:00,71.8,49.9,28.76,NW,315,2.6,2.6,46,0.00,CLR,,0.00,WeatherDisplay:10.37,2013-07-11 01:15:00,
2013-07-10 20:17:00,71.8,49.9,28.76,WNW,292,2.4,3.1,46,0.00,CLR,,0.00,WeatherDisplay:10.37,2013-07-11 01:17:00,
2013-07-10 20:18:00,71.6,49.7,28.76,WNW,292,1.6,3.5,46,0.00,CLR,,0.00,WeatherDisplay:10.37,2013-07-11 01:18:00,
2013-07-10 20:19:00,71.6,49.7,28.76,NW,315,2.4,3.6,46,0.00,CLR,,0.00,WeatherDisplay:10.37,2013-07-11 01:19:00,
2013-07-10 20:20:00,71.6,49.7,28.76,NW,315,2.2,3.5,46,0.00,CLR,,0.00,WeatherDisplay:10.37,2013-07-11 01:20:00,
2013-07-10 20:22:00,71.4,50.1,28.76,NW,315,2.4,3.5,47,0.00,CLR,,0.00,WeatherDisplay:10.37,2013-07-11 01:22:00,
2013-07-10 20:23:00,71.2,50.0,28.76,NW,315,2.4,2.4,47,0.00,CLR,,0.00,WeatherDisplay:10.37,2013-07-11 01:23:00,
2013-07-10 20:24:00,71.2,50.0,28.76,NW,315,2.2,3.5,47,0.00,CLR,,0.00,WeatherDisplay:10.37,2013-07-11 01:24:00,
2013-07-10 20:25:00,71.1,49.8,28.76,WNW,292,2.0,2.3,47,0.00,CLR,,0.00,WeatherDisplay:10.37,2013-07-11 01:25:00,
2013-07-10 20:27:00,70.9,49.6,28.76,NW,315,2.4,3.5,47,0.00,CLR,,0.00,WeatherDisplay:10.37,2013-07-11 01:27:00,
2013-07-10 20:28:00,70.7,50.0,28.76,NW,315,1.6,3.5,48,0.00,CLR,,0.00,WeatherDisplay:10.37,2013-07-11 01:28:00,
2013-07-10 20:29:00,70.5,49.9,28.76,NW,315,0.0,2.4,48,0.00,CLR,,0.00,WeatherDisplay:10.37,2013-07-11 01:29:00,
2013-07-10 20:30:00,70.5,49.9,28.76,WNW,292,2.0,2.3,48,0.00,CLR,,0.00,WeatherDisplay:10.37,2013-07-11 01:30:00,
2013-07-10 20:32:00,70.3,49.7,28.76,NW,315,1.4,1.6,48,0.00,CLR,,0.00,WeatherDisplay:10.37,2013-07-11 01:32:00,
2013-07-10 20:34:00,70.2,49.5,28.76,NW,315,1.2,2.6,48,0.00,CLR,,0.00,WeatherDisplay:10.37,2013-07-11 01:34:00,
2013-07-10 20:35:00,70.2,49.5,28.76,NW,315,2.2,3.5,48,0.00,CLR,,0.00,WeatherDisplay:10.37,2013-07-11 01:35:00,
2013-07-10 20:36:00,70.0,49.9,28.76,NW,315,2.2,3.5,49,0.00,CLR,,0.00,WeatherDisplay:10.37,2013-07-11 01:36:00,
2013-07-10 20:37:00,69.8,49.8,28.76,WNW,292,2.2,3.5,49,0.00,CLR,,0.00,WeatherDisplay:10.37,2013-07-11 01:37:00,
2013-07-10 20:39:00,69.6,50.2,28.76,West,270,1.4,3.1,50,0.00,CLR,,0.00,WeatherDisplay:10.37,2013-07-11 01:39:00,
2013-07-10 20:40:00,69.6,50.2,28.76,WNW,292,1.6,3.5,50,0.00,CLR,,0.00,WeatherDisplay:10.37,2013-07-11 01:40:00,
2013-07-10 20:42:00,69.4,50.0,28.76,NW,315,0.0,2.3,50,0.00,CLR,,0.00,WeatherDisplay:10.37,2013-07-11 01:42:00,
2013-07-10 20:43:00,69.3,49.8,28.76,NW,315,0.0,0.0,50,0.00,CLR,,0.00,WeatherDisplay:10.37,2013-07-11 01:43:00,
2013-07-10 20:44:00,69.3,49.8,28.76,NW,315,0.0,0.0,50,0.00,CLR,,0.00,WeatherDisplay:10.37,2013-07-11 01:44:00,
2013-07-10 20:45:00,69.1,49.7,28.76,NW,315,0.0,0.0,50,0.00,CLR,,0.00,WeatherDisplay:10.37,2013-07-11 01:45:00,
2013-07-10 20:46:00,69.1,49.7,28.76,NW,315,0.0,0.0,50,0.00,CLR,,0.00,WeatherDisplay:10.37,2013-07-11 01:46:00,
2013-07-10 20:47:00,69.1,49.7,28.76,North,0,0.0,0.0,50,0.00,CLR,,0.00,WeatherDisplay:10.37,2013-07-11 01:47:00,
2013-07-10 20:48:00,68.7,49.9,28.76,North,0,0.0,0.0,51,0.00,CLR,,0.00,WeatherDisplay:10.37,2013-07-11 01:48:00,
2013-07-10 20:49:00,68.5,49.7,28.76,North,0,0.0,0.0,51,0.00,CLR,,0.00,WeatherDisplay:10.37,2013-07-11 01:49:00,
2013-07-10 20:51:00,68.4,50.0,28.76,North,0,0.0,0.0,52,0.00,CLR,,0.00,WeatherDisplay:10.37,2013-07-11 01:51:00,
2013-07-10 20:52:00,68.4,50.0,28.76,North,0,0.0,0.0,52,0.00,CLR,,0.00,WeatherDisplay:10.37,2013-07-11 01:52:00,
2013-07-10 20:53:00,68.0,49.7,28.76,North,0,0.0,0.0,52,0.00,CLR,,0.00,WeatherDisplay:10.37,2013-07-11 01:53:00,
2013-07-10 20:54:00,67.8,50.1,28.76,North,0,0.0,0.0,53,0.00,CLR,,0.00,WeatherDisplay:10.37,2013-07-11 01:54:00,
2013-07-10 20:56:00,67.6,50.9,28.76,North,0,0.0,0.0,55,0.00,CLR,,0.00,WeatherDisplay:10.37,2013-07-11 01:56:00,
2013-07-10 20:57:00,67.5,51.7,28.76,North,0,0.0,0.0,57,0.00,CLR,,0.00,WeatherDisplay:10.37,2013-07-11 01:57:00,
2013-07-10 20:59:00,67.1,50.9,28.76,North,0,0.0,0.0,56,0.00,CLR,,0.00,WeatherDisplay:10.37,2013-07-11 01:59:00,
2013-07-10 21:01:00,67.1,50.4,28.76,North,0,0.0,0.0,55,0.00,CLR,,0.00,WeatherDisplay:10.37,2013-07-11 02:01:00,
2013-07-10 21:02:00,67.1,50.4,28.76,North,0,0.0,0.0,55,0.00,CLR,,0.00,WeatherDisplay:10.37,2013-07-11 02:02:00,
2013-07-10 21:04:00,66.6,51.8,28.76,North,0,0.0,0.0,59,0.00,CLR,,0.00,WeatherDisplay:10.37,2013-07-11 02:04:00,
2013-07-10 21:05:00,66.6,51.8,28.76,North,0,0.0,0.0,59,0.00,CLR,,0.00,WeatherDisplay:10.37,2013-07-11 02:05:00,
2013-07-10 21:06:00,66.4,51.2,28.76,North,0,0.0,0.0,58,0.00,CLR,,0.00,WeatherDisplay:10.37,2013-07-11 02:06:00,
2013-07-10 21:07:00,66.2,51.4,28.76,North,0,0.0,0.0,59,0.00,CLR,,0.00,WeatherDisplay:10.37,2013-07-11 02:07:00,
2013-07-10 21:09:00,66.2,51.4,28.76,WNW,292,0.0,0.0,59,0.00,CLR,,0.00,WeatherDisplay:10.37,2013-07-11 02:09:00,
2013-07-10 21:10:00,66.0,51.7,28.79,WNW,292,0.0,0.0,60,0.00,CLR,,0.00,WeatherDisplay:10.37,2013-07-11 02:10:00,
2013-07-10 21:11:00,66.0,51.7,28.79,WNW,292,0.0,0.0,60,0.00,CLR,,0.00,WeatherDisplay:10.37,2013-07-11 02:11:00,
2013-07-10 21:12:00,65.8,51.6,28.79,WNW,292,0.0,0.0,60,0.00,CLR,,0.00,WeatherDisplay:10.37,2013-07-11 02:12:00,
2013-07-10 21:13:00,65.8,52.0,28.79,WNW,292,0.0,0.0,61,0.00,CLR,,0.00,WeatherDisplay:10.37,2013-07-11 02:13:00,
2013-07-10 21:14:00,65.7,52.3,28.79,WNW,292,0.0,1.4,62,0.00,CLR,,0.00,WeatherDisplay:10.37,2013-07-11 02:14:00,
2013-07-10 21:15:00,65.5,52.1,28.79,West,270,0.9,1.2,62,0.00,CLR,,0.00,WeatherDisplay:10.37,2013-07-11 02:15:00,
2013-07-10 21:16:00,65.5,52.1,28.79,WNW,292,1.4,2.3,62,0.00,CLR,,0.00,WeatherDisplay:10.37,2013-07-11 02:16:00,
2013-07-10 21:17:00,65.5,52.1,28.79,WNW,292,1.4,2.3,62,0.00,CLR,,0.00,WeatherDisplay:10.37,2013-07-11 02:17:00,
2013-07-10 21:18:00,65.3,52.4,28.79,WNW,292,0.0,0.0,63,0.00,CLR,,0.00,WeatherDisplay:10.37,2013-07-11 02:18:00,
2013-07-10 21:19:00,65.3,52.8,28.79,WNW,292,0.0,0.0,64,0.00,CLR,,0.00,WeatherDisplay:10.37,2013-07-11 02:19:00,
2013-07-10 21:20:00,65.1,52.6,28.79,WNW,292,0.0,0.0,64,0.00,CLR,,0.00,WeatherDisplay:10.37,2013-07-11 02:20:00,
2013-07-10 21:22:00,65.1,52.6,28.79,WNW,292,0.0,0.0,64,0.00,CLR,,0.00,WeatherDisplay:10.37,2013-07-11 02:22:00,
2013-07-10 21:23:00,64.9,52.5,28.79,WNW,292,0.0,0.0,64,0.00,CLR,,0.00,WeatherDisplay:10.37,2013-07-11 02:23:00,
2013-07-10 21:25:00,64.9,52.5,28.79,WNW,292,0.0,0.0,64,0.00,CLR,,0.00,WeatherDisplay:10.37,2013-07-11 02:25:00,
2013-07-10 21:26:00,64.8,52.7,28.79,WNW,292,0.0,0.0,65,0.00,CLR,,0.00,WeatherDisplay:10.37,2013-07-11 02:26:00,
2013-07-10 21:27:00,64.8,52.7,28.79,WNW,292,0.0,0.0,65,0.00,CLR,,0.00,WeatherDisplay:10.37,2013-07-11 02:27:00,
2013-07-10 21:29:00,64.4,52.4,28.79,NW,315,0.0,0.0,65,0.00,CLR,,0.00,WeatherDisplay:10.37,2013-07-11 02:29:00,
2013-07-10 21:30:00,64.4,52.4,28.79,NW,315,0.0,0.0,65,0.00,CLR,,0.00,WeatherDisplay:10.37,2013-07-11 02:30:00,
2013-07-10 21:31:00,64.4,52.4,28.79,NW,315,0.0,0.0,65,0.00,CLR,,0.00,WeatherDisplay:10.37,2013-07-11 02:31:00,
2013-07-10 21:32:00,64.0,52.4,28.79,NW,315,0.0,0.0,66,0.00,CLR,,0.00,WeatherDisplay:10.37,2013-07-11 02:32:00,
2013-07-10 21:33:00,64.0,52.4,28.79,NW,315,0.0,0.0,66,0.00,CLR,,0.00,WeatherDisplay:10.37,2013-07-11 02:33:00,
2013-07-10 21:34:00,63.9,52.3,28.79,NW,315,0.0,0.0,66,0.00,CLR,,0.00,WeatherDisplay:10.37,2013-07-11 02:34:00,
2013-07-10 21:35:00,63.9,52.3,28.79,NW,315,0.0,0.0,66,0.00,CLR,,0.00,WeatherDisplay:10.37,2013-07-11 02:35:00,
2013-07-10 21:36:00,63.9,52.3,28.79,NW,315,0.0,0.0,66,0.00,CLR,,0.00,WeatherDisplay:10.37,2013-07-11 02:36:00,
2013-07-10 21:37:00,63.7,52.9,28.79,NW,315,0.0,0.0,68,0.00,CLR,,0.00,WeatherDisplay:10.37,2013-07-11 02:37:00,
2013-07-10 21:39:00,63.7,52.9,28.79,NW,315,0.0,0.0,68,0.00,CLR,,0.00,WeatherDisplay:10.37,2013-07-11 02:39:00,
2013-07-10 21:41:00,63.3,53.0,28.79,NW,315,0.0,0.0,69,0.00,CLR,,0.00,WeatherDisplay:10.37,2013-07-11 02:41:00,
2013-07-10 21:42:00,63.1,53.2,28.79,NW,315,0.0,0.0,70,0.00,CLR,,0.00,WeatherDisplay:10.37,2013-07-11 02:42:00,
2013-07-10 21:44:00,63.1,53.2,28.79,NW,315,0.0,0.0,70,0.00,CLR,,0.00,WeatherDisplay:10.37,2013-07-11 02:44:00,
2013-07-10 21:46:00,63.0,53.0,28.79,NW,315,0.0,0.0,70,0.00,CLR,,0.00,WeatherDisplay:10.37,2013-07-11 02:46:00,
2013-07-10 21:48:00,62.8,52.8,28.79,WNW,292,0.0,0.0,70,0.00,CLR,,0.00,WeatherDisplay:10.37,2013-07-11 02:48:00,
2013-07-10 21:49:00,62.8,52.8,28.79,WNW,292,0.0,0.0,70,0.00,CLR,,0.00,WeatherDisplay:10.37,2013-07-11 02:49:00,
2013-07-10 21:50:00,62.6,53.1,28.79,WNW,292,0.0,0.0,71,0.00,CLR,,0.00,WeatherDisplay:10.37,2013-07-11 02:50:00,
2013-07-10 21:51:00,62.6,53.1,28.79,West,270,0.0,0.0,71,0.00,CLR,,0.00,WeatherDisplay:10.37,2013-07-11 02:51:00,
2013-07-10 21:52:00,62.6,53.1,28.79,West,270,0.0,0.0,71,0.00,CLR,,0.00,WeatherDisplay:10.37,2013-07-11 02:52:00,
2013-07-10 21:53:00,62.6,53.4,28.79,West,270,0.0,0.0,72,0.00,CLR,,0.00,WeatherDisplay:10.37,2013-07-11 02:53:00,
2013-07-10 21:54:00,62.6,53.4,28.79,West,270,0.0,0.0,72,0.00,CLR,,0.00,WeatherDisplay:10.37,2013-07-11 02:54:00,
2013-07-10 21:55:00,62.4,53.3,28.79,West,270,0.0,0.0,72,0.00,CLR,,0.00,WeatherDisplay:10.37,2013-07-11 02:55:00,
2013-07-10 21:56:00,62.4,53.6,28.79,WNW,292,0.0,0.0,73,0.00,CLR,,0.00,WeatherDisplay:10.37,2013-07-11 02:56:00,
2013-07-10 21:57:00,62.4,53.6,28.79,NW,315,0.0,0.0,73,0.00,CLR,,0.00,WeatherDisplay:10.37,2013-07-11 02:57:00,
2013-07-10 21:58:00,62.2,53.5,28.79,NW,315,0.0,0.0,73,0.00,CLR,,0.00,WeatherDisplay:10.37,2013-07-11 02:58:00,
2013-07-10 21:59:00,62.2,53.5,28.79,NW,315,0.0,0.0,73,0.00,CLR,,0.00,WeatherDisplay:10.37,2013-07-11 02:59:00,
2013-07-10 22:01:00,62.2,53.5,28.79,WNW,292,0.0,0.0,73,0.00,CLR,,0.00,WeatherDisplay:10.37,2013-07-11 03:01:00,
2013-07-10 22:02:00,62.2,53.5,28.79,NW,315,0.0,2.3,73,0.00,CLR,,0.00,WeatherDisplay:10.37,2013-07-11 03:02:00,
2013-07-10 22:03:00,62.1,53.3,28.79,NW,315,0.0,0.0,73,0.00,CLR,,0.00,WeatherDisplay:10.37,2013-07-11 03:03:00,
2013-07-10 22:05:00,61.9,53.1,28.79,NW,315,0.0,0.0,73,0.00,CLR,,0.00,WeatherDisplay:10.37,2013-07-11 03:05:00,
2013-07-10 22:06:00,61.9,53.1,28.79,WNW,292,0.0,0.0,73,0.00,CLR,,0.00,WeatherDisplay:10.37,2013-07-11 03:06:00,
2013-07-10 22:07:00,61.9,53.5,28.79,NNW,338,0.0,0.0,74,0.00,CLR,,0.00,WeatherDisplay:10.37,2013-07-11 03:07:00,
2013-07-10 22:09:00,61.7,53.7,28.79,NW,315,0.0,0.0,75,0.00,CLR,,0.00,WeatherDisplay:10.37,2013-07-11 03:09:00,
2013-07-10 22:10:00,61.7,54.1,28.79,NW,314,0.0,0.0,76,0.00,CLR,,0.00,WeatherDisplay:10.37,2013-07-11 03:10:00,
2013-07-10 22:11:00,61.5,53.5,28.79,NW,315,0.0,0.0,75,0.00,CLR,,0.00,WeatherDisplay:10.37,2013-07-11 03:11:00,
2013-07-10 22:12:00,61.3,53.3,28.79,NW,315,0.0,0.0,75,0.00,CLR,,0.00,WeatherDisplay:10.37,2013-07-11 03:12:00,
2013-07-10 22:14:00,61.3,53.3,28.79,NW,315,0.0,0.0,75,0.00,CLR,,0.00,WeatherDisplay:10.37,2013-07-11 03:14:00,
2013-07-10 22:15:00,61.2,53.5,28.79,NW,315,0.0,0.0,76,0.00,CLR,,0.00,WeatherDisplay:10.37,2013-07-11 03:15:00,
2013-07-10 22:16:00,61.2,53.5,28.79,WNW,292,0.0,0.0,76,0.00,CLR,,0.00,WeatherDisplay:10.37,2013-07-11 03:16:00,
2013-07-10 22:17:00,61.2,53.5,28.79,WNW,292,0.0,0.0,76,0.00,CLR,,0.00,WeatherDisplay:10.37,2013-07-11 03:17:00,
2013-07-10 22:18:00,61.2,53.5,28.79,NW,315,0.0,0.0,76,0.00,CLR,,0.00,WeatherDisplay:10.37,2013-07-11 03:18:00,
2013-07-10 22:19:00,61.2,53.9,28.79,NW,315,0.0,0.0,77,0.00,CLR,,0.00,WeatherDisplay:10.37,2013-07-11 03:19:00,
2013-07-10 22:20:00,61.0,53.7,28.79,NW,315,0.0,0.0,77,0.00,CLR,,0.00,WeatherDisplay:10.37,2013-07-11 03:20:00,
2013-07-10 22:21:00,61.0,53.7,28.79,NW,315,0.0,0.0,77,0.00,CLR,,0.00,WeatherDisplay:10.37,2013-07-11 03:21:00,
2013-07-10 22:22:00,61.0,53.7,28.79,NW,315,0.0,0.0,77,0.00,CLR,,0.00,WeatherDisplay:10.37,2013-07-11 03:22:00,
2013-07-10 22:23:00,61.0,53.7,28.79,WNW,292,0.0,0.0,77,0.00,CLR,,0.00,WeatherDisplay:10.37,2013-07-11 03:23:00,
2013-07-10 22:24:00,61.0,53.7,28.79,WNW,292,0.0,0.0,77,0.00,CLR,,0.00,WeatherDisplay:10.37,2013-07-11 03:24:00,
2013-07-10 22:25:00,60.8,53.5,28.82,NW,315,0.0,2.0,77,0.00,CLR,,0.00,WeatherDisplay:10.37,2013-07-11 03:25:00,
2013-07-10 22:27:00,60.8,53.9,28.82,NW,315,0.0,2.3,78,0.00,CLR,,0.00,WeatherDisplay:10.37,2013-07-11 03:27:00,
2013-07-10 22:28:00,60.8,53.9,28.82,NW,315,0.0,0.0,78,0.00,CLR,,0.00,WeatherDisplay:10.37,2013-07-11 03:28:00,
2013-07-10 22:29:00,60.8,53.9,28.82,WNW,292,0.0,2.2,78,0.00,CLR,,0.00,WeatherDisplay:10.37,2013-07-11 03:29:00,
2013-07-10 22:30:00,60.8,53.9,28.82,NNW,338,0.0,2.3,78,0.00,CLR,,0.00,WeatherDisplay:10.37,2013-07-11 03:30:00,
2013-07-10 22:32:00,60.8,53.9,28.82,NW,315,0.0,1.2,78,0.00,CLR,,0.00,WeatherDisplay:10.37,2013-07-11 03:32:00,
2013-07-10 22:34:00,60.8,54.2,28.82,NW,315,0.0,0.0,79,0.00,CLR,,0.00,WeatherDisplay:10.37,2013-07-11 03:34:00,
2013-07-10 22:36:00,60.6,54.1,28.82,NW,315,0.0,0.0,79,0.00,CLR,,0.00,WeatherDisplay:10.37,2013-07-11 03:36:00,
2013-07-10 22:37:00,60.6,54.1,28.82,NW,315,0.0,0.0,79,0.00,CLR,,0.00,WeatherDisplay:10.37,2013-07-11 03:37:00,
2013-07-10 22:38:00,60.6,54.1,28.82,NW,315,0.0,0.0,79,0.00,CLR,,0.00,WeatherDisplay:10.37,2013-07-11 03:38:00,
2013-07-10 22:39:00,60.6,54.1,28.82,NW,315,0.0,0.0,79,0.00,CLR,,0.00,WeatherDisplay:10.37,2013-07-11 03:39:00,
2013-07-10 22:41:00,60.4,53.9,28.76,NW,315,0.0,0.0,79,0.00,CLR,,0.00,WeatherDisplay:10.37,2013-07-11 03:41:00,
2013-07-10 22:42:00,60.3,53.7,28.76,NW,315,0.0,0.0,79,0.00,CLR,,0.00,WeatherDisplay:10.37,2013-07-11 03:42:00,
2013-07-10 22:43:00,60.3,53.7,28.76,NW,315,0.0,0.0,79,0.00,CLR,,0.00,WeatherDisplay:10.37,2013-07-11 03:43:00,
2013-07-10 22:44:00,60.3,53.7,28.76,NW,315,0.0,0.0,79,0.00,CLR,,0.00,WeatherDisplay:10.37,2013-07-11 03:44:00,
2013-07-10 22:46:00,60.1,53.5,28.76,NW,315,0.0,0.0,79,0.00,CLR,,0.00,WeatherDisplay:10.37,2013-07-11 03:46:00,
2013-07-10 22:48:00,60.1,53.9,28.76,NW,315,0.0,0.0,80,0.00,CLR,,0.00,WeatherDisplay:10.37,2013-07-11 03:48:00,
2013-07-10 22:49:00,60.1,53.9,28.76,NW,315,0.0,0.0,80,0.00,CLR,,0.00,WeatherDisplay:10.37,2013-07-11 03:49:00,
2013-07-10 22:50:00,60.1,53.9,28.76,NW,315,0.0,0.0,80,0.00,CLR,,0.00,WeatherDisplay:10.37,2013-07-11 03:50:00,
2013-07-10 22:51:00,59.9,53.7,28.76,NW,315,0.0,0.0,80,0.00,CLR,,0.00,WeatherDisplay:10.37,2013-07-11 03:51:00,
2013-07-10 22:53:00,59.9,53.7,28.76,NW,315,0.0,0.0,80,0.00,CLR,,0.00,WeatherDisplay:10.37,2013-07-11 03:53:00,
2013-07-10 22:54:00,59.9,54.1,28.76,NW,315,0.0,0.0,81,0.00,CLR,,0.00,WeatherDisplay:10.37,2013-07-11 03:54:00,
2013-07-10 22:55:00,59.9,54.1,28.79,NW,315,0.0,0.0,81,0.00,CLR,,0.00,WeatherDisplay:10.37,2013-07-11 03:55:00,
2013-07-10 22:57:00,59.7,53.9,28.79,NW,315,0.0,0.0,81,0.00,CLR,,0.00,WeatherDisplay:10.37,2013-07-11 03:57:00,
2013-07-10 22:58:00,59.7,53.9,28.79,NW,315,0.0,0.0,81,0.00,CLR,,0.00,WeatherDisplay:10.37,2013-07-11 03:58:00,
2013-07-10 22:59:00,59.7,53.9,28.79,NW,315,0.0,0.0,81,0.00,CLR,,0.00,WeatherDisplay:10.37,2013-07-11 03:59:00,
2013-07-10 23:00:00,59.7,54.2,28.79,NW,315,0.0,0.0,82,0.00,CLR,,0.00,WeatherDisplay:10.37,2013-07-11 04:00:00,
2013-07-10 23:01:00,59.7,54.2,28.79,NW,315,0.0,0.0,82,0.00,CLR,,0.00,WeatherDisplay:10.37,2013-07-11 04:01:00,
2013-07-10 23:06:00,59.4,53.5,28.79,WNW,292,0.0,0.0,81,0.00,CLR,,0.00,WeatherDisplay:10.37,2013-07-11 04:06:00,
2013-07-10 23:11:00,59.2,53.4,28.79,WNW,292,0.0,0.0,81,0.00,CLR,,0.00,WeatherDisplay:10.37,2013-07-11 04:11:00,
2013-07-10 23:16:00,59.2,53.4,28.79,NW,315,0.0,0.0,81,0.00,CLR,,0.00,WeatherDisplay:10.37,2013-07-11 04:16:00,
2013-07-10 23:17:00,59.0,53.5,28.79,NW,315,0.0,0.0,82,0.00,CLR,,0.00,WeatherDisplay:10.37,2013-07-11 04:17:00,
2013-07-10 23:21:00,58.8,53.7,28.79,NW,315,0.0,0.0,83,0.00,CLR,,0.00,WeatherDisplay:10.37,2013-07-11 04:21:00,
2013-07-10 23:22:00,58.8,53.7,28.79,NW,315,0.0,0.0,83,0.00,CLR,,0.00,WeatherDisplay:10.37,2013-07-11 04:22:00,
2013-07-10 23:26:00,58.6,53.8,28.79,NW,315,0.0,0.0,84,0.00,CLR,,0.00,WeatherDisplay:10.37,2013-07-11 04:26:00,
2013-07-10 23:27:00,58.6,53.5,28.79,NW,315,0.0,0.0,83,0.00,CLR,,0.00,WeatherDisplay:10.37,2013-07-11 04:27:00,
2013-07-10 23:28:00,58.6,53.5,28.79,NW,315,0.0,0.0,83,0.00,CLR,,0.00,WeatherDisplay:10.37,2013-07-11 04:28:00,
2013-07-10 23:31:00,58.5,53.6,28.79,NW,315,0.0,0.0,84,0.00,CLR,,0.00,WeatherDisplay:10.37,2013-07-11 04:31:00,
2013-07-10 23:32:00,58.5,53.6,28.79,NW,315,0.0,0.0,84,0.00,CLR,,0.00,WeatherDisplay:10.37,2013-07-11 04:32:00,
2013-07-10 23:33:00,58.5,53.6,28.79,NW,315,0.0,0.0,84,0.00,CLR,,0.00,WeatherDisplay:10.37,2013-07-11 04:33:00,
2013-07-10 23:36:00,58.5,53.6,28.79,NW,315,0.0,0.0,84,0.00,CLR,,0.00,WeatherDisplay:10.37,2013-07-11 04:36:00,
2013-07-10 23:37:00,58.5,53.6,28.79,NW,315,0.0,0.0,84,0.00,CLR,,0.00,WeatherDisplay:10.37,2013-07-11 04:37:00,
2013-07-10 23:38:00,58.5,53.6,28.79,NW,315,0.0,0.0,84,0.00,CLR,,0.00,WeatherDisplay:10.37,2013-07-11 04:38:00,
2013-07-10 23:41:00,58.3,53.5,28.82,NW,315,0.0,0.0,84,0.00,CLR,,0.00,WeatherDisplay:10.37,2013-07-11 04:41:00,
2013-07-10 23:42:00,58.3,53.5,28.82,NW,315,0.0,0.0,84,0.00,CLR,,0.00,WeatherDisplay:10.37,2013-07-11 04:42:00,
2013-07-10 23:43:00,58.3,53.8,28.82,NW,315,0.0,0.0,85,0.00,CLR,,0.00,WeatherDisplay:10.37,2013-07-11 04:43:00,
2013-07-10 23:46:00,58.1,53.3,28.82,NW,315,0.0,0.0,84,0.00,CLR,,0.00,WeatherDisplay:10.37,2013-07-11 04:46:00,
2013-07-10 23:47:00,58.1,53.3,28.82,NW,315,0.0,0.0,84,0.00,CLR,,0.00,WeatherDisplay:10.37,2013-07-11 04:47:00,
2013-07-10 23:48:00,58.1,53.3,28.82,NW,315,0.0,0.0,84,0.00,CLR,,0.00,WeatherDisplay:10.37,2013-07-11 04:48:00,
2013-07-10 23:52:00,57.9,53.4,28.82,NW,315,0.0,0.0,85,0.00,CLR,,0.00,WeatherDisplay:10.37,2013-07-11 04:52:00,
2013-07-10 23:53:00,57.9,53.4,28.82,NW,315,0.0,0.0,85,0.00,CLR,,0.00,WeatherDisplay:10.37,2013-07-11 04:53:00,
2013-07-10 23:57:00,57.7,53.3,28.82,NW,315,0.0,0.0,85,0.00,CLR,,0.00,WeatherDisplay:10.37,2013-07-11 04:57:00,
2013-07-10 23:58:00,57.7,53.3,28.82,West,270,0.0,0.0,85,0.00,CLR,,0.00,WeatherDisplay:10.37,2013-07-11 04:58:00,